M I D A S
Marine Information and Data Acquisition System
Tripno 1430 of the Zeeleeuw from 2008-02-27 07:35:08 to 2008-02-27 15:52:09
Back to CruiseResearch ActivitiesStationsMapUnderway DataData graphs

EquipmentUnitsComment
TimeDGPSUTC
LatitudeDGPSDM.mWGS84
LongitudeDGPSDM.mWGS84
TemperatureSBE03/SBE38deg celciusITS90
ConductivitySBE21S/mITS90
SalinitySBE21 Practical Salinity Units
ChlorophylAChelsea fluorimeterg/lCalibrated in Aceton
Missing or incorrect values are displayed as -999
Sea surface data collected by the RV Zeeleeuw from 2008-02-27 07:37:18 to 2008-02-27 16:00:25
                                                                                    Next 1000 lines
Time Latitude Longitude Temperature Conductivity Salinity ChlorophylA
2008-02-27 07:37:26 51°13.663 2°55.951 13.9649 0.205436 1.077385 -1.801521
2008-02-27 07:37:31 51°13.664 2°55.948 14.0259 0.205436 1.077368 -1.801521
2008-02-27 07:37:36 51°13.664 2°55.944 14.1237 0.205436 1.077368 -1.801521
2008-02-27 07:37:41 51°13.665 2°55.94 14.1679 0.205436 1.077368 -1.801521
2008-02-27 07:37:47 51°13.666 2°55.933 14.123 0.205436 1.077368 -1.801521
2008-02-27 07:37:54 51°13.668 2°55.924 14.1556 0.205436 1.077402 -1.766697
2008-02-27 07:37:58 51°13.669 2°55.918 14.1965 0.205436 1.077402 -1.801521
2008-02-27 07:38:03 51°13.671 2°55.911 14.1827 0.205436 1.07742 -1.766697
2008-02-27 07:38:08 51°13.672 2°55.902 14.1982 0.205436 1.07742 -1.766697
2008-02-27 07:38:13 51°13.674 2°55.894 14.2206 0.205436 1.07742 -1.766697
2008-02-27 07:38:19 51°13.676 2°55.883 14.2273 0.205436 1.077437 -1.801521
2008-02-27 07:38:23 51°13.677 2°55.876 14.2164 0.205436 1.077437 -1.766697
2008-02-27 07:38:28 51°13.679 2°55.867 14.1902 0.205436 1.077437 -1.801521
2008-02-27 07:38:33 51°13.681 2°55.857 14.1992 0.205436 1.077454 -1.801521
2008-02-27 07:38:38 51°13.682 2°55.848 14.2236 0.205436 1.077454 -1.801521
2008-02-27 07:38:43 51°13.683 2°55.838 14.2261 0.205436 1.077454 -1.801521
2008-02-27 07:38:49 51°13.685 2°55.825 14.2231 0.205436 1.077489 -1.801521
2008-02-27 07:38:53 51°13.686 2°55.817 14.2245 0.205436 1.077489 -1.801521
2008-02-27 07:38:58 51°13.687 2°55.807 14.2357 0.205436 1.077489 -1.766697
2008-02-27 07:39:03 51°13.688 2°55.797 14.2245 0.205436 1.077489 -1.801521
2008-02-27 07:39:08 51°13.689 2°55.788 14.2215 0.205436 1.077489 -1.766697
2008-02-27 07:39:13 51°13.689 2°55.779 14.2257 0.205436 1.077489 -1.766697
2008-02-27 07:39:19 51°13.69 2°55.77 14.22 0.205436 1.077489 -1.766697
2008-02-27 07:39:23 51°13.69 2°55.764 14.2189 0.205436 1.077507 -1.801521
2008-02-27 07:39:28 51°13.691 2°55.757 14.2115 0.205436 1.077507 -1.766697
2008-02-27 07:39:33 51°13.691 2°55.751 14.2063 0.205436 1.077524 -1.801521
2008-02-27 07:39:38 51°13.691 2°55.745 14.2125 0.205436 1.077524 -1.766697
2008-02-27 07:39:43 51°13.691 2°55.741 14.2599 0.205436 1.077541 -1.766697
2008-02-27 07:39:48 51°13.691 2°55.737 14.2368 0.205436 1.077541 -1.766697
2008-02-27 07:39:53 51°13.691 2°55.735 14.2352 0.205436 1.077541 -1.801521
2008-02-27 07:39:57 51°13.691 2°55.733 14.2388 0.205436 1.077559 -1.801521
2008-02-27 07:40:03 51°13.691 2°55.732 14.2385 0.205436 1.077559 -1.766697
2008-02-27 07:40:09 51°13.692 2°55.731 14.2423 0.205436 1.077576 -1.766697
2008-02-27 07:40:14 51°13.692 2°55.732 14.2436 0.205436 1.077576 -1.766697
2008-02-27 07:40:18 51°13.693 2°55.732 14.2675 0.205436 1.077576 -1.801521
2008-02-27 07:40:23 51°13.693 2°55.733 14.2354 0.205436 1.077593 -1.766697
2008-02-27 07:40:28 51°13.695 2°55.735 14.2364 0.205436 1.077611 -1.766697
2008-02-27 07:40:33 51°13.696 2°55.736 14.247 0.205436 1.077611 -1.801521
2008-02-27 07:40:37 51°13.697 2°55.737 14.2726 0.205436 1.077646 -1.801521
2008-02-27 07:40:42 51°13.699 2°55.739 14.2772 0.205436 1.077646 -1.801521
2008-02-27 07:40:48 51°13.701 2°55.741 14.284 0.205436 1.077646 -1.766697
2008-02-27 07:40:54 51°13.705 2°55.742 14.2945 0.205436 1.077663 -1.766697
2008-02-27 07:40:58 51°13.707 2°55.743 14.2965 0.205436 1.077663 -1.766697
2008-02-27 07:41:02 51°13.709 2°55.743 14.2819 0.205436 1.077663 -1.766697
2008-02-27 07:41:08 51°13.713 2°55.743 14.2801 0.205436 1.07768 -1.801521
2008-02-27 07:41:12 51°13.716 2°55.743 14.2815 0.205436 1.07768 -1.801521
2008-02-27 07:41:18 51°13.72 2°55.743 14.3158 0.205436 1.07768 -1.801521
2008-02-27 07:41:22 51°13.723 2°55.742 14.3591 0.205436 1.077663 -1.801521
2008-02-27 07:41:27 51°13.728 2°55.739 14.3965 0.205436 1.077663 -1.801521
2008-02-27 07:41:32 51°13.733 2°55.736 14.39 0.205436 1.07768 -1.801521
2008-02-27 07:41:37 51°13.738 2°55.731 14.3014 0.205436 1.07768 -1.801521
2008-02-27 07:41:42 51°13.744 2°55.725 14.2307 0.205436 1.07768 -1.801521
2008-02-27 07:41:45 51°13.748 2°55.722 14.1788 0.205436 1.077663 -1.801521
2008-02-27 07:41:50 51°13.756 2°55.715 14.1151 0.205436 1.077646 -1.801521
2008-02-27 07:41:58 51°13.767 2°55.703 14.1253 0.205436 1.077646 -1.766697
2008-02-27 07:42:02 51°13.773 2°55.696 14.1244 0.205436 1.077646 -1.766697
2008-02-27 07:42:07 51°13.782 2°55.687 14.1088 0.205436 1.077663 -1.801521
2008-02-27 07:42:12 51°13.79 2°55.678 13.9669 0.205436 1.077663 -1.801521
2008-02-27 07:42:17 51°13.799 2°55.669 13.9699 0.205436 1.077663 -1.766697
2008-02-27 07:42:22 51°13.808 2°55.66 14.03 0.205436 1.077698 -1.801521
2008-02-27 07:42:27 51°13.817 2°55.65 14.0349 0.205436 1.077715 -1.766697
2008-02-27 07:42:32 51°13.827 2°55.641 14.0539 0.205436 1.07775 -1.801521
2008-02-27 07:42:37 51°13.837 2°55.632 14.0587 0.205436 1.077767 -1.801521
2008-02-27 07:42:42 51°13.848 2°55.623 13.9792 0.205436 1.077767 -1.801521
2008-02-27 07:42:46 51°13.856 2°55.616 13.94 0.205436 1.077767 -1.801521
2008-02-27 07:42:52 51°13.869 2°55.606 13.9391 0.205436 1.077785 -1.766697
2008-02-27 07:42:57 51°13.88 2°55.597 14.0401 0.205436 1.077785 -1.766697
2008-02-27 07:43:02 51°13.891 2°55.589 14.04 0.205436 1.077802 -1.766697
2008-02-27 07:43:05 51°13.897 2°55.584 14.093 0.205333 1.077252 -1.766697
2008-02-27 07:43:10 51°13.909 2°55.575 14.0364 0.205333 1.077252 -1.801521
2008-02-27 07:43:15 51°13.92 2°55.567 13.9916 0.205333 1.077252 -1.801521
2008-02-27 07:43:21 51°13.933 2°55.558 14.0552 0.205333 1.077269 -1.801521
2008-02-27 07:43:26 51°13.944 2°55.551 14.0642 0.205333 1.077287 -1.766697
2008-02-27 07:43:31 51°13.953 2°55.543 14.0572 0.205333 1.077304 -1.801521
2008-02-27 07:43:36 51°13.963 2°55.537 14.1253 0.205333 1.077304 -1.766697
2008-02-27 07:43:41 51°13.972 2°55.53 14.1856 0.205333 1.077304 -1.766697
2008-02-27 07:43:46 51°13.98 2°55.524 14.15 0.205333 1.077321 -1.801521
2008-02-27 07:43:50 51°13.987 2°55.519 14.1575 0.205333 1.077321 -1.766697
2008-02-27 07:43:55 51°13.995 2°55.514 14.1794 0.205333 1.077339 -1.801521
2008-02-27 07:44:00 51°14.003 2°55.508 14.1905 0.205333 1.077339 -1.766697
2008-02-27 07:44:04 51°14.009 2°55.504 14.2191 0.205333 1.077356 -1.801521
2008-02-27 07:44:10 51°14.017 2°55.497 14.2026 0.205333 1.077356 -1.801521
2008-02-27 07:44:15 51°14.024 2°55.491 14.2242 0.205333 1.077356 -1.801521
2008-02-27 07:44:20 51°14.031 2°55.486 14.2095 0.205333 1.077356 -1.766697
2008-02-27 07:44:25 51°14.038 2°55.481 14.2025 0.205333 1.077356 -1.766697
2008-02-27 07:44:30 51°14.045 2°55.475 14.1863 0.205333 1.077374 -1.766697
2008-02-27 07:44:35 51°14.052 2°55.47 14.2031 0.205333 1.077391 -1.766697
2008-02-27 07:44:40 51°14.058 2°55.465 14.2143 0.205333 1.077391 -1.801521
2008-02-27 07:44:45 51°14.065 2°55.46 14.226 0.205333 1.077391 -1.801521
2008-02-27 07:44:50 51°14.071 2°55.455 14.2395 0.205333 1.077391 -1.766697
2008-02-27 07:44:55 51°14.078 2°55.45 14.2585 0.205333 1.077391 -1.801521
2008-02-27 07:45:00 51°14.085 2°55.444 14.3008 0.205333 1.077391 -1.766697
2008-02-27 07:45:05 51°14.093 2°55.439 14.2758 0.205333 1.077408 -1.801521
2008-02-27 07:45:10 51°14.101 2°55.432 14.2514 0.205333 1.077408 -1.766697
2008-02-27 07:45:15 51°14.11 2°55.426 14.2066 0.205333 1.077408 -1.766697
2008-02-27 07:45:20 51°14.119 2°55.418 14.2152 0.205333 1.077408 -1.801521
2008-02-27 07:45:25 51°14.129 2°55.41 14.249 0.205333 1.077426 -1.766697
2008-02-27 07:45:30 51°14.139 2°55.402 14.1641 0.205333 1.077443 -1.766697
2008-02-27 07:45:35 51°14.15 2°55.392 14.1354 0.205333 1.077443 -1.801521
2008-02-27 07:45:40 51°14.161 2°55.383 14.2315 0.205333 1.077443 -1.801521
2008-02-27 07:45:45 51°14.172 2°55.372 14.1684 0.205333 1.077443 -1.801521
2008-02-27 07:45:50 51°14.184 2°55.361 14.1724 0.205333 1.077461 -1.766697
2008-02-27 07:45:54 51°14.193 2°55.351 14.2158 0.205333 1.077478 -1.766697
2008-02-27 07:46:00 51°14.207 2°55.336 14.2369 0.205333 1.077478 -1.801521
2008-02-27 07:46:06 51°14.221 2°55.32 14.1631 0.205333 1.077513 -1.801521
2008-02-27 07:46:10 51°14.23 2°55.308 14.1523 0.205333 1.077513 -1.801521
2008-02-27 07:46:15 51°14.241 2°55.292 14.1052 0.205333 1.077513 -1.766697
2008-02-27 07:46:20 51°14.252 2°55.275 14.238 0.205333 1.077443 -1.766697
2008-02-27 07:46:25 51°14.263 2°55.258 13.9581 0.205333 1.077408 -1.801521
2008-02-27 07:46:30 51°14.274 2°55.24 14.0711 0.205333 1.077408 -1.801521
2008-02-27 07:46:35 51°14.285 2°55.222 14.0146 0.205333 1.077408 -1.801521
2008-02-27 07:46:40 51°14.295 2°55.203 14.0744 0.205333 1.077443 -1.801521
2008-02-27 07:46:45 51°14.306 2°55.183 14.0373 0.205333 1.077443 -1.801521
2008-02-27 07:46:50 51°14.316 2°55.163 13.93 0.205333 1.077513 -1.801521
2008-02-27 07:46:55 51°14.326 2°55.143 13.875 0.205333 1.077565 -1.801521
2008-02-27 07:47:00 51°14.337 2°55.123 13.9467 0.205333 1.077634 -1.801521
2008-02-27 07:47:05 51°14.347 2°55.102 13.898 0.205333 1.077687 -1.766697
2008-02-27 07:47:10 51°14.357 2°55.081 13.7901 0.205333 1.077687 -1.766697
2008-02-27 07:47:15 51°14.366 2°55.059 13.8275 0.205333 1.077687 -1.801521
2008-02-27 07:47:20 51°14.376 2°55.038 13.9317 0.205333 1.077548 -1.766697
2008-02-27 07:47:25 51°14.385 2°55.016 13.7432 0.205333 1.077461 -1.801521
2008-02-27 07:47:29 51°14.393 2°54.998 13.8867 0.205333 1.077374 -1.766697
2008-02-27 07:47:34 51°14.403 2°54.976 13.7845 0.205333 1.077391 -1.801521
2008-02-27 07:47:39 51°14.412 2°54.953 13.9163 0.205333 1.077391 -1.801521
2008-02-27 07:47:44 51°14.421 2°54.93 13.9176 0.205333 1.077478 -1.801521
2008-02-27 07:47:49 51°14.43 2°54.907 13.9462 0.205333 1.077565 -1.766697
2008-02-27 07:47:54 51°14.439 2°54.883 13.9245 0.205333 1.077704 -1.801521
2008-02-27 07:47:59 51°14.447 2°54.859 13.8803 0.205333 1.077774 -1.801521
2008-02-27 07:48:04 51°14.455 2°54.834 13.8066 0.205333 1.077808 -1.801521
2008-02-27 07:48:09 51°14.463 2°54.81 13.8302 0.205333 1.077791 -1.801521
2008-02-27 07:48:15 51°14.473 2°54.78 13.8526 0.205333 1.077791 -1.801521
2008-02-27 07:48:19 51°14.479 2°54.76 13.8475 0.205333 1.077774 -1.766697
2008-02-27 07:48:25 51°14.49 2°54.731 13.7046 0.205333 1.077739 -1.801521
2008-02-27 07:48:30 51°14.498 2°54.706 13.8663 0.205333 1.077704 -1.801521
2008-02-27 07:48:34 51°14.505 2°54.687 13.7924 0.205333 1.077687 -1.766697
2008-02-27 07:48:39 51°14.513 2°54.663 13.7581 0.205333 1.077687 -1.801521
2008-02-27 07:48:44 51°14.522 2°54.638 13.8517 0.205333 1.077687 -1.801521
2008-02-27 07:48:50 51°14.532 2°54.609 13.7637 0.205333 1.077687 -1.766697
2008-02-27 07:48:54 51°14.539 2°54.59 13.8185 0.205333 1.077721 -1.801521
2008-02-27 07:48:59 51°14.547 2°54.565 13.7597 0.205333 1.077739 -1.766697
2008-02-27 07:49:04 51°14.556 2°54.541 13.8174 0.205333 1.077739 -1.801521
2008-02-27 07:49:09 51°14.564 2°54.517 13.842 0.205333 1.077739 -1.801521
2008-02-27 07:49:14 51°14.573 2°54.493 13.8498 0.205333 1.077756 -1.766697
2008-02-27 07:49:19 51°14.581 2°54.468 13.7155 0.205333 1.077774 -1.801521
2008-02-27 07:49:24 51°14.589 2°54.444 13.8322 0.205333 1.077774 -1.801521
2008-02-27 07:49:30 51°14.599 2°54.414 13.7754 0.205333 1.077756 -1.801521
2008-02-27 07:49:34 51°14.606 2°54.395 13.86 0.205333 1.077756 -1.801521
2008-02-27 07:49:40 51°14.615 2°54.365 13.8015 0.205333 1.077756 -1.801521
2008-02-27 07:49:45 51°14.623 2°54.34 13.8236 0.205333 1.077756 -1.801521
2008-02-27 07:49:50 51°14.63 2°54.315 13.828 0.20523 1.077206 -1.801521
2008-02-27 07:49:55 51°14.638 2°54.29 13.8143 0.20523 1.077223 -1.801521
2008-02-27 07:50:00 51°14.644 2°54.264 13.8132 0.20523 1.077241 -1.766697
2008-02-27 07:50:05 51°14.65 2°54.238 13.7899 0.20523 1.077293 -1.801521
2008-02-27 07:50:10 51°14.656 2°54.211 13.783 0.20523 1.077275 -1.801521
2008-02-27 07:50:14 51°14.66 2°54.19 13.768 0.20523 1.077275 -1.801521
2008-02-27 07:50:19 51°14.665 2°54.164 13.7529 0.20523 1.077293 -1.801521
2008-02-27 07:50:24 51°14.67 2°54.137 13.785 0.20523 1.07731 -1.766697
2008-02-27 07:50:30 51°14.676 2°54.104 13.7278 0.20523 1.07731 -1.801521
2008-02-27 07:50:34 51°14.68 2°54.083 13.7383 0.20523 1.07731 -1.766697
2008-02-27 07:50:39 51°14.685 2°54.056 13.7863 0.20523 1.07731 -1.766697
2008-02-27 07:50:44 51°14.69 2°54.029 13.7572 0.20523 1.077328 -1.801521
2008-02-27 07:50:50 51°14.695 2°53.996 13.7177 0.20523 1.077328 -1.801521
2008-02-27 07:50:55 51°14.7 2°53.969 13.7314 0.20523 1.077345 -1.801521
2008-02-27 07:51:00 51°14.704 2°53.942 13.7852 0.20523 1.077345 -1.801521
2008-02-27 07:51:05 51°14.708 2°53.915 13.6965 0.20523 1.077362 -1.801521
2008-02-27 07:51:10 51°14.712 2°53.887 13.7265 0.20523 1.077362 -1.801521
2008-02-27 07:51:15 51°14.716 2°53.86 13.775 0.20523 1.07738 -1.766697
2008-02-27 07:51:20 51°14.72 2°53.833 13.7315 0.20523 1.07738 -1.766697
2008-02-27 07:51:25 51°14.723 2°53.806 13.7169 0.20523 1.077397 -1.801521
2008-02-27 07:51:30 51°14.727 2°53.778 13.7495 0.20523 1.077415 -1.801521
2008-02-27 07:51:34 51°14.729 2°53.756 13.7578 0.20523 1.077432 -1.801521
2008-02-27 07:51:40 51°14.733 2°53.723 13.6826 0.20523 1.077415 -1.801521
2008-02-27 07:51:45 51°14.736 2°53.696 13.7764 0.20523 1.077415 -1.801521
2008-02-27 07:51:50 51°14.74 2°53.668 13.7312 0.20523 1.077432 -1.801521
2008-02-27 07:51:55 51°14.742 2°53.641 13.7693 0.20523 1.077432 -1.801521
2008-02-27 07:52:00 51°14.745 2°53.613 13.7564 0.20523 1.077467 -1.801521
2008-02-27 07:52:05 51°14.747 2°53.585 13.781 0.20523 1.077449 -1.766697
2008-02-27 07:52:10 51°14.75 2°53.558 13.7334 0.20523 1.077449 -1.766697
2008-02-27 07:52:15 51°14.752 2°53.53 13.7668 0.20523 1.077449 -1.766697
2008-02-27 07:52:19 51°14.754 2°53.508 13.7684 0.20523 1.077449 -1.766697
2008-02-27 07:52:25 51°14.757 2°53.475 13.8678 0.20523 1.077449 -1.801521
2008-02-27 07:52:30 51°14.758 2°53.447 13.765 0.20523 1.077519 -1.801521
2008-02-27 07:52:35 51°14.757 2°53.42 13.7526 0.20523 1.077502 -1.801521
2008-02-27 07:52:40 51°14.757 2°53.392 13.718 0.20523 1.077502 -1.801521
2008-02-27 07:52:45 51°14.757 2°53.364 13.7646 0.20523 1.077519 -1.801521
2008-02-27 07:52:50 51°14.756 2°53.337 13.7617 0.20523 1.077519 -1.801521
2008-02-27 07:52:55 51°14.755 2°53.309 13.6784 0.20523 1.077536 -1.766697
2008-02-27 07:53:00 51°14.754 2°53.282 13.6896 0.20523 1.077519 -1.766697
2008-02-27 07:53:05 51°14.753 2°53.254 13.6979 0.20523 1.077536 -1.766697
2008-02-27 07:53:10 51°14.752 2°53.226 13.7262 0.20523 1.077536 -1.766697
2008-02-27 07:53:15 51°14.75 2°53.199 13.7363 0.20523 1.077519 -1.801521
2008-02-27 07:53:20 51°14.749 2°53.171 13.6939 0.20523 1.077536 -1.801521
2008-02-27 07:53:25 51°14.748 2°53.143 13.7383 0.20523 1.077536 -1.801521
2008-02-27 07:53:30 51°14.747 2°53.115 13.7122 0.20523 1.077536 -1.801521
2008-02-27 07:53:34 51°14.746 2°53.093 13.7502 0.20523 1.077571 -1.766697
2008-02-27 07:53:40 51°14.745 2°53.06 13.7651 0.20523 1.077571 -1.766697
2008-02-27 07:53:45 51°14.745 2°53.031 13.7487 0.20523 1.077571 -1.766697
2008-02-27 07:53:50 51°14.744 2°53.004 13.7307 0.20523 1.077606 -1.801521
2008-02-27 07:53:55 51°14.742 2°52.976 13.7185 0.20523 1.077589 -1.766697
2008-02-27 07:54:00 51°14.741 2°52.948 13.731 0.20523 1.077623 -1.766697
2008-02-27 07:54:05 51°14.74 2°52.92 13.7354 0.20523 1.077606 -1.766697
2008-02-27 07:54:10 51°14.739 2°52.892 13.7513 0.20523 1.077623 -1.766697
2008-02-27 07:54:15 51°14.738 2°52.864 13.7684 0.20523 1.077623 -1.766697
2008-02-27 07:54:20 51°14.736 2°52.837 13.8052 0.20523 1.077623 -1.766697
2008-02-27 07:54:25 51°14.734 2°52.809 13.6863 0.20523 1.077676 -1.766697
2008-02-27 07:54:30 51°14.73 2°52.782 13.7123 0.20523 1.077623 -1.766697
2008-02-27 07:54:35 51°14.726 2°52.755 13.7402 0.20523 1.077554 -1.766697
2008-02-27 07:54:40 51°14.722 2°52.727 13.7359 0.20523 1.077554 -1.766697
2008-02-27 07:54:45 51°14.717 2°52.7 13.7322 0.20523 1.077519 -1.766697
2008-02-27 07:54:50 51°14.713 2°52.673 13.7346 0.20523 1.077519 -1.766697
2008-02-27 07:54:55 51°14.709 2°52.646 13.7261 0.20523 1.077519 -1.766697
2008-02-27 07:55:00 51°14.705 2°52.618 13.725 0.20523 1.077606 -1.766697
2008-02-27 07:55:05 51°14.7 2°52.591 13.6985 0.20523 1.077641 -1.766697
2008-02-27 07:55:10 51°14.696 2°52.564 13.741 0.205127 1.077177 -1.766697
2008-02-27 07:55:15 51°14.691 2°52.537 13.7401 0.205127 1.077177 -1.766697
2008-02-27 07:55:20 51°14.688 2°52.509 13.7395 0.20523 1.077798 -1.766697
2008-02-27 07:55:25 51°14.683 2°52.482 13.7549 0.20523 1.077832 -1.766697
2008-02-27 07:55:30 51°14.679 2°52.455 13.7219 0.205127 1.077264 -1.766697
2008-02-27 07:55:35 51°14.675 2°52.427 13.7484 0.205127 1.077264 -1.766697
2008-02-27 07:55:40 51°14.67 2°52.4 13.7054 0.20523 1.077798 -1.766697
2008-02-27 07:55:45 51°14.666 2°52.372 13.7443 0.20523 1.077798 -1.766697
2008-02-27 07:55:50 51°14.662 2°52.344 13.7034 0.205127 1.077195 -1.766697
2008-02-27 07:55:54 51°14.659 2°52.322 13.7455 0.205127 1.07716 -1.801521
2008-02-27 07:56:00 51°14.654 2°52.289 13.7299 0.205127 1.07716 -1.766697
2008-02-27 07:56:05 51°14.649 2°52.261 13.7553 0.205127 1.077142 -1.766697
2008-02-27 07:56:10 51°14.646 2°52.234 13.7544 0.205127 1.077177 -1.801521
2008-02-27 07:56:15 51°14.64 2°52.206 13.7255 0.205127 1.077177 -1.801521
2008-02-27 07:56:20 51°14.635 2°52.179 13.7645 0.205127 1.07716 -1.766697
2008-02-27 07:56:25 51°14.63 2°52.152 13.6967 0.205127 1.077195 -1.766697
2008-02-27 07:56:30 51°14.625 2°52.125 13.7332 0.205127 1.077195 -1.766697
2008-02-27 07:56:35 51°14.62 2°52.098 13.7232 0.205127 1.077212 -1.801521
2008-02-27 07:56:40 51°14.615 2°52.071 13.7226 0.205127 1.077212 -1.801521
2008-02-27 07:56:45 51°14.61 2°52.044 13.7486 0.205127 1.077212 -1.766697
2008-02-27 07:56:50 51°14.605 2°52.017 13.7252 0.205127 1.077229 -1.766697
2008-02-27 07:56:55 51°14.6 2°51.99 13.7559 0.205127 1.077247 -1.766697
2008-02-27 07:57:00 51°14.595 2°51.963 13.7299 0.205127 1.077229 -1.766697
2008-02-27 07:57:05 51°14.591 2°51.935 13.7317 0.205127 1.077247 -1.766697
2008-02-27 07:57:10 51°14.586 2°51.909 13.7361 0.205127 1.077247 -1.766697
2008-02-27 07:57:15 51°14.581 2°51.881 13.7363 0.205127 1.077247 -1.766697
2008-02-27 07:57:20 51°14.576 2°51.854 13.757 0.205127 1.077264 -1.766697
2008-02-27 07:57:25 51°14.571 2°51.827 13.7231 0.205127 1.077282 -1.766697
2008-02-27 07:57:30 51°14.566 2°51.8 13.743 0.205127 1.077264 -1.766697
2008-02-27 07:57:35 51°14.562 2°51.773 13.7444 0.205127 1.077282 -1.801521
2008-02-27 07:57:40 51°14.557 2°51.745 13.7365 0.205127 1.077282 -1.766697
2008-02-27 07:57:45 51°14.552 2°51.718 13.7523 0.205127 1.077282 -1.766697
2008-02-27 07:57:50 51°14.548 2°51.69 13.7437 0.205127 1.077264 -1.766697
2008-02-27 07:57:55 51°14.544 2°51.663 13.7397 0.205127 1.077282 -1.766697
2008-02-27 07:58:00 51°14.54 2°51.635 13.7379 0.205127 1.077299 -1.766697
2008-02-27 07:58:05 51°14.536 2°51.608 13.723 0.205127 1.077282 -1.766697
2008-02-27 07:58:10 51°14.532 2°51.58 13.7497 0.205127 1.077282 -1.766697
2008-02-27 07:58:15 51°14.528 2°51.553 13.7457 0.205127 1.077316 -1.801521
2008-02-27 07:58:20 51°14.524 2°51.525 13.7462 0.205127 1.077316 -1.766697
2008-02-27 07:58:25 51°14.52 2°51.498 13.747 0.205127 1.077351 -1.766697
2008-02-27 07:58:30 51°14.516 2°51.471 13.7448 0.205127 1.077369 -1.766697
2008-02-27 07:58:35 51°14.512 2°51.443 13.762 0.205127 1.077369 -1.766697
2008-02-27 07:58:40 51°14.509 2°51.416 13.7635 0.205127 1.077386 -1.766697
2008-02-27 07:58:45 51°14.504 2°51.388 13.7257 0.205127 1.077386 -1.766697
2008-02-27 07:58:50 51°14.5 2°51.361 13.7464 0.205127 1.077386 -1.766697
2008-02-27 07:58:55 51°14.496 2°51.333 13.7532 0.205127 1.077386 -1.766697
2008-02-27 07:59:00 51°14.492 2°51.306 13.7496 0.205127 1.077403 -1.801521
2008-02-27 07:59:05 51°14.488 2°51.278 13.7686 0.205127 1.077403 -1.801521
2008-02-27 07:59:10 51°14.485 2°51.251 13.7238 0.205127 1.077386 -1.801521
2008-02-27 07:59:15 51°14.481 2°51.223 13.77 0.205127 1.077386 -1.801521
2008-02-27 07:59:20 51°14.477 2°51.195 13.7472 0.205127 1.077403 -1.766697
2008-02-27 07:59:25 51°14.473 2°51.167 13.7683 0.205127 1.077403 -1.766697
2008-02-27 07:59:30 51°14.47 2°51.14 13.7616 0.205127 1.077421 -1.801521
2008-02-27 07:59:35 51°14.466 2°51.112 13.7661 0.205127 1.077421 -1.766697
2008-02-27 07:59:40 51°14.462 2°51.084 13.7411 0.205127 1.077438 -1.766697
2008-02-27 07:59:45 51°14.458 2°51.056 13.7575 0.205127 1.077438 -1.766697
2008-02-27 07:59:50 51°14.454 2°51.028 13.7746 0.205127 1.077438 -1.766697
2008-02-27 07:59:55 51°14.451 2°51 13.753 0.205127 1.077456 -1.766697
2008-02-27 08:00:00 51°14.447 2°50.973 13.7657 0.205127 1.077456 -1.766697
2008-02-27 08:00:05 51°14.443 2°50.945 13.7779 0.205127 1.077473 -1.766697
2008-02-27 08:00:10 51°14.439 2°50.917 13.7701 0.205127 1.077473 -1.766697
2008-02-27 08:00:15 51°14.435 2°50.889 13.7793 0.205127 1.077473 -1.801521
2008-02-27 08:00:20 51°14.432 2°50.861 13.7542 0.205127 1.077491 -1.766697
2008-02-27 08:00:25 51°14.428 2°50.834 13.7484 0.205127 1.077491 -1.766697
2008-02-27 08:00:30 51°14.424 2°50.806 13.7854 0.205127 1.077491 -1.766697
2008-02-27 08:00:35 51°14.42 2°50.778 13.7646 0.205127 1.077508 -1.766697
2008-02-27 08:00:40 51°14.416 2°50.75 13.7909 0.205127 1.077508 -1.766697
2008-02-27 08:00:45 51°14.412 2°50.722 13.7748 0.205127 1.077508 -1.766697
2008-02-27 08:00:50 51°14.408 2°50.694 13.7814 0.205127 1.077525 -1.766697
2008-02-27 08:00:55 51°14.404 2°50.666 13.7742 0.205127 1.077525 -1.766697
2008-02-27 08:01:00 51°14.401 2°50.638 13.7807 0.205127 1.077525 -1.801521
2008-02-27 08:01:05 51°14.397 2°50.611 13.7768 0.205127 1.077543 -1.766697
2008-02-27 08:01:10 51°14.393 2°50.583 13.7732 0.205127 1.077543 -1.766697
2008-02-27 08:01:15 51°14.388 2°50.555 13.7765 0.205127 1.077543 -1.766697
2008-02-27 08:01:20 51°14.385 2°50.527 13.7715 0.205127 1.07756 -1.766697
2008-02-27 08:01:25 51°14.381 2°50.499 13.7886 0.205127 1.07756 -1.766697
2008-02-27 08:01:30 51°14.377 2°50.471 13.7673 0.205024 1.076992 -1.766697
2008-02-27 08:01:35 51°14.373 2°50.444 13.7647 0.205024 1.077009 -1.766697
2008-02-27 08:01:40 51°14.369 2°50.415 13.7982 0.205024 1.077009 -1.766697
2008-02-27 08:01:45 51°14.365 2°50.387 13.7868 0.205024 1.077009 -1.801521
2008-02-27 08:01:50 51°14.362 2°50.36 13.7691 0.205024 1.077027 -1.766697
2008-02-27 08:01:55 51°14.358 2°50.331 13.7959 0.205024 1.077027 -1.766697
2008-02-27 08:02:00 51°14.354 2°50.304 13.7686 0.205024 1.077044 -1.766697
2008-02-27 08:02:05 51°14.35 2°50.276 13.7824 0.205024 1.077044 -1.766697
2008-02-27 08:02:10 51°14.346 2°50.248 13.7872 0.205024 1.077044 -1.766697
2008-02-27 08:02:15 51°14.343 2°50.221 13.7959 0.205024 1.077044 -1.766697
2008-02-27 08:02:20 51°14.339 2°50.193 13.7889 0.205024 1.077062 -1.766697
2008-02-27 08:02:25 51°14.336 2°50.165 13.7852 0.205024 1.077062 -1.766697
2008-02-27 08:02:30 51°14.332 2°50.137 13.7798 0.205024 1.077079 -1.766697
2008-02-27 08:02:35 51°14.328 2°50.109 13.8086 0.205024 1.077096 -1.766697
2008-02-27 08:02:40 51°14.324 2°50.081 13.7744 0.205024 1.077096 -1.801521
2008-02-27 08:02:45 51°14.32 2°50.053 13.8013 0.205024 1.077096 -1.801521
2008-02-27 08:02:50 51°14.316 2°50.025 13.7942 0.205024 1.077114 -1.766697
2008-02-27 08:02:55 51°14.313 2°49.997 13.7977 0.205024 1.077114 -1.801521
2008-02-27 08:03:00 51°14.309 2°49.969 13.8044 0.205024 1.077114 -1.766697
2008-02-27 08:03:05 51°14.305 2°49.941 13.7872 0.205024 1.077114 -1.766697
2008-02-27 08:03:10 51°14.301 2°49.913 13.7944 0.205024 1.077131 -1.766697
2008-02-27 08:03:15 51°14.297 2°49.885 13.7707 0.205024 1.077131 -1.766697
2008-02-27 08:03:20 51°14.293 2°49.857 13.8001 0.205024 1.077131 -1.766697
2008-02-27 08:03:25 51°14.289 2°49.829 13.8179 0.205024 1.077149 -1.766697
2008-02-27 08:03:30 51°14.285 2°49.801 13.7769 0.205024 1.077166 -1.766697
2008-02-27 08:03:35 51°14.282 2°49.773 13.8022 0.205024 1.077183 -1.801521
2008-02-27 08:03:40 51°14.278 2°49.745 13.8014 0.205024 1.077183 -1.801521
2008-02-27 08:03:45 51°14.274 2°49.718 13.7805 0.205024 1.077166 -1.801521
2008-02-27 08:03:50 51°14.269 2°49.69 13.7972 0.205024 1.077183 -1.766697
2008-02-27 08:03:55 51°14.265 2°49.663 13.7909 0.205024 1.077183 -1.766697
2008-02-27 08:04:00 51°14.261 2°49.636 13.8097 0.205024 1.077201 -1.766697
2008-02-27 08:04:05 51°14.257 2°49.608 13.8086 0.205024 1.077201 -1.766697
2008-02-27 08:04:10 51°14.253 2°49.581 13.7974 0.205024 1.077183 -1.766697
2008-02-27 08:04:15 51°14.25 2°49.553 13.8018 0.205024 1.077183 -1.766697
2008-02-27 08:04:20 51°14.245 2°49.526 13.7854 0.205024 1.077201 -1.766697
2008-02-27 08:04:25 51°14.241 2°49.498 13.8054 0.205024 1.077218 -1.766697
2008-02-27 08:04:30 51°14.238 2°49.47 13.8149 0.205024 1.077218 -1.766697
2008-02-27 08:04:35 51°14.234 2°49.442 13.7945 0.205024 1.077236 -1.766697
2008-02-27 08:04:40 51°14.23 2°49.414 13.8123 0.205024 1.077253 -1.766697
2008-02-27 08:04:45 51°14.226 2°49.387 13.7918 0.205024 1.077253 -1.766697
2008-02-27 08:04:50 51°14.222 2°49.359 13.8228 0.205024 1.077236 -1.801521
2008-02-27 08:04:55 51°14.218 2°49.332 13.8071 0.205024 1.077253 -1.766697
2008-02-27 08:05:00 51°14.214 2°49.304 13.8203 0.205024 1.077271 -1.766697
2008-02-27 08:05:05 51°14.21 2°49.276 13.8107 0.205024 1.077271 -1.766697
2008-02-27 08:05:10 51°14.206 2°49.248 13.813 0.205024 1.077271 -1.766697
2008-02-27 08:05:15 51°14.203 2°49.22 13.8197 0.205024 1.077271 -1.801521
2008-02-27 08:05:20 51°14.199 2°49.193 13.811 0.205024 1.077288 -1.766697
2008-02-27 08:05:25 51°14.195 2°49.165 13.8125 0.205024 1.077288 -1.766697
2008-02-27 08:05:30 51°14.191 2°49.137 13.8172 0.205024 1.077288 -1.766697
2008-02-27 08:05:35 51°14.187 2°49.109 13.8168 0.205024 1.077305 -1.766697
2008-02-27 08:05:40 51°14.183 2°49.081 13.8092 0.205024 1.077305 -1.766697
2008-02-27 08:05:45 51°14.179 2°49.053 13.8264 0.205024 1.077323 -1.766697
2008-02-27 08:05:50 51°14.175 2°49.025 13.822 0.205024 1.077305 -1.766697
2008-02-27 08:05:55 51°14.171 2°48.996 13.8158 0.205024 1.077323 -1.766697
2008-02-27 08:06:00 51°14.167 2°48.969 13.8376 0.205024 1.077323 -1.766697
2008-02-27 08:06:05 51°14.163 2°48.941 13.8443 0.205024 1.077375 -1.801521
2008-02-27 08:06:10 51°14.157 2°48.914 13.8179 0.205024 1.077375 -1.801521
2008-02-27 08:06:15 51°14.151 2°48.887 13.8458 0.205024 1.077375 -1.801521
2008-02-27 08:06:20 51°14.145 2°48.861 13.8434 0.205024 1.077375 -1.766697
2008-02-27 08:06:25 51°14.138 2°48.835 13.8434 0.205024 1.07741 -1.766697
2008-02-27 08:06:30 51°14.129 2°48.811 13.7892 0.205024 1.07741 -1.801521
2008-02-27 08:06:35 51°14.12 2°48.787 13.823 0.205024 1.077392 -1.801521
2008-02-27 08:06:40 51°14.112 2°48.762 13.8236 0.205024 1.07741 -1.766697
2008-02-27 08:06:45 51°14.102 2°48.739 13.8282 0.205024 1.07741 -1.766697
2008-02-27 08:06:50 51°14.092 2°48.715 13.8225 0.205024 1.07741 -1.766697
2008-02-27 08:06:55 51°14.082 2°48.692 13.8341 0.205024 1.077392 -1.766697
2008-02-27 08:07:00 51°14.073 2°48.667 13.8176 0.205024 1.077427 -1.766697
2008-02-27 08:07:05 51°14.061 2°48.645 13.8247 0.205024 1.07741 -1.766697
2008-02-27 08:07:10 51°14.051 2°48.621 13.8273 0.205024 1.07741 -1.766697
2008-02-27 08:07:15 51°14.041 2°48.597 13.8296 0.205024 1.077427 -1.801521
2008-02-27 08:07:20 51°14.03 2°48.574 13.8217 0.205024 1.077427 -1.766697
2008-02-27 08:07:25 51°14.019 2°48.552 13.8193 0.205024 1.077427 -1.766697
2008-02-27 08:07:30 51°14.008 2°48.529 13.8217 0.205024 1.077427 -1.766697
2008-02-27 08:07:35 51°13.997 2°48.506 13.8293 0.205024 1.077445 -1.801521
2008-02-27 08:07:40 51°13.986 2°48.483 13.8133 0.205024 1.077445 -1.801521
2008-02-27 08:07:45 51°13.975 2°48.46 13.8376 0.205024 1.077445 -1.801521
2008-02-27 08:07:50 51°13.965 2°48.437 13.8336 0.205024 1.077445 -1.766697
2008-02-27 08:07:55 51°13.953 2°48.414 13.8389 0.204921 1.076894 -1.766697
2008-02-27 08:08:00 51°13.943 2°48.391 13.8306 0.204921 1.076911 -1.766697
2008-02-27 08:08:05 51°13.932 2°48.369 13.8234 0.204921 1.076894 -1.766697
2008-02-27 08:08:10 51°13.921 2°48.345 13.8364 0.205024 1.077462 -1.801521
2008-02-27 08:08:15 51°13.91 2°48.322 13.8445 0.205024 1.077462 -1.801521
2008-02-27 08:08:20 51°13.9 2°48.3 13.8292 0.204921 1.076928 -1.801521
2008-02-27 08:08:25 51°13.889 2°48.277 13.8524 0.204921 1.076894 -1.766697
2008-02-27 08:08:30 51°13.878 2°48.253 13.8544 0.204921 1.076928 -1.801521
2008-02-27 08:08:35 51°13.867 2°48.23 13.8524 0.204921 1.076911 -1.801521
2008-02-27 08:08:40 51°13.857 2°48.207 13.8453 0.204921 1.076946 -1.801521
2008-02-27 08:08:45 51°13.846 2°48.184 13.8494 0.204921 1.076946 -1.801521
2008-02-27 08:08:50 51°13.835 2°48.162 13.8411 0.204921 1.076928 -1.766697
2008-02-27 08:08:55 51°13.825 2°48.138 13.8517 0.204921 1.076946 -1.801521
2008-02-27 08:09:00 51°13.813 2°48.117 13.858 0.204921 1.076963 -1.801521
2008-02-27 08:09:05 51°13.803 2°48.093 13.8674 0.204921 1.076963 -1.801521
2008-02-27 08:09:10 51°13.793 2°48.069 13.8514 0.204921 1.076963 -1.801521
2008-02-27 08:09:15 51°13.782 2°48.047 13.8421 0.204921 1.076998 -1.801521
2008-02-27 08:09:20 51°13.771 2°48.023 13.8767 0.204921 1.076963 -1.766697
2008-02-27 08:09:25 51°13.761 2°48 13.8517 0.204921 1.076998 -1.766697
2008-02-27 08:09:30 51°13.75 2°47.978 13.8479 0.204921 1.076998 -1.766697
2008-02-27 08:09:35 51°13.739 2°47.954 13.8672 0.204921 1.076998 -1.766697
2008-02-27 08:09:40 51°13.729 2°47.931 13.8486 0.204921 1.076998 -1.766697
2008-02-27 08:09:45 51°13.718 2°47.908 13.8729 0.204921 1.076998 -1.766697
2008-02-27 08:09:50 51°13.708 2°47.885 13.8569 0.204921 1.077033 -1.766697
2008-02-27 08:09:55 51°13.697 2°47.862 13.8655 0.204921 1.077033 -1.766697
2008-02-27 08:10:00 51°13.686 2°47.838 13.8589 0.204921 1.077033 -1.766697
2008-02-27 08:10:05 51°13.675 2°47.815 13.8706 0.204921 1.077033 -1.766697
2008-02-27 08:10:10 51°13.665 2°47.792 13.8556 0.204921 1.07705 -1.766697
2008-02-27 08:10:15 51°13.654 2°47.769 13.8787 0.204921 1.07705 -1.766697
2008-02-27 08:10:20 51°13.643 2°47.746 13.8614 0.204921 1.077085 -1.801521
2008-02-27 08:10:25 51°13.632 2°47.723 13.8866 0.204921 1.07705 -1.766697
2008-02-27 08:10:30 51°13.623 2°47.699 13.8586 0.204921 1.077085 -1.801521
2008-02-27 08:10:35 51°13.611 2°47.677 13.8745 0.204921 1.077068 -1.766697
2008-02-27 08:10:40 51°13.602 2°47.653 13.8662 0.204921 1.077068 -1.766697
2008-02-27 08:10:45 51°13.59 2°47.631 13.8791 0.204921 1.07712 -1.766697
2008-02-27 08:10:50 51°13.58 2°47.607 13.8792 0.204921 1.077103 -1.801521
2008-02-27 08:10:55 51°13.57 2°47.584 13.8799 0.204921 1.07712 -1.801521
2008-02-27 08:11:00 51°13.559 2°47.561 13.8658 0.204921 1.07712 -1.766697
2008-02-27 08:11:05 51°13.549 2°47.537 13.8856 0.204921 1.07712 -1.801521
2008-02-27 08:11:10 51°13.539 2°47.514 13.8696 0.204921 1.07712 -1.801521
2008-02-27 08:11:15 51°13.527 2°47.491 13.8787 0.204921 1.077138 -1.766697
2008-02-27 08:11:20 51°13.517 2°47.467 13.8828 0.204921 1.077138 -1.801521
2008-02-27 08:11:25 51°13.506 2°47.445 13.8706 0.204921 1.077138 -1.766697
2008-02-27 08:11:30 51°13.496 2°47.421 13.8923 0.204921 1.077155 -1.801521
2008-02-27 08:11:35 51°13.485 2°47.398 13.8797 0.204921 1.077155 -1.801521
2008-02-27 08:11:40 51°13.475 2°47.375 13.877 0.204921 1.077172 -1.766697
2008-02-27 08:11:45 51°13.463 2°47.352 13.8896 0.204921 1.077172 -1.766697
2008-02-27 08:11:50 51°13.453 2°47.328 13.8893 0.204921 1.077155 -1.766697
2008-02-27 08:11:55 51°13.442 2°47.305 13.8861 0.204921 1.077172 -1.766697
2008-02-27 08:12:00 51°13.432 2°47.281 13.9021 0.204921 1.07719 -1.766697
2008-02-27 08:12:05 51°13.421 2°47.258 13.884 0.204921 1.07719 -1.801521
2008-02-27 08:12:10 51°13.41 2°47.235 13.8976 0.204921 1.07719 -1.801521
2008-02-27 08:12:15 51°13.4 2°47.211 13.8978 0.204921 1.077172 -1.801521
2008-02-27 08:12:20 51°13.389 2°47.188 13.8838 0.204921 1.077207 -1.766697
2008-02-27 08:12:25 51°13.378 2°47.165 13.9111 0.204921 1.07719 -1.766697
2008-02-27 08:12:30 51°13.368 2°47.141 13.8936 0.204921 1.077242 -1.801521
2008-02-27 08:12:35 51°13.357 2°47.119 13.906 0.204921 1.077207 -1.766697
2008-02-27 08:12:40 51°13.347 2°47.094 13.8991 0.204921 1.077207 -1.766697
2008-02-27 08:12:45 51°13.336 2°47.072 13.8918 0.204921 1.077242 -1.801521
2008-02-27 08:12:50 51°13.325 2°47.048 13.9005 0.204921 1.077242 -1.801521
2008-02-27 08:12:55 51°13.314 2°47.025 13.9135 0.204921 1.077242 -1.766697
2008-02-27 08:13:00 51°13.304 2°47.001 13.9055 0.204921 1.07726 -1.766697
2008-02-27 08:13:05 51°13.293 2°46.978 13.9116 0.204921 1.077242 -1.801521
2008-02-27 08:13:10 51°13.283 2°46.954 13.9107 0.204921 1.077277 -1.801521
2008-02-27 08:13:15 51°13.272 2°46.931 13.9066 0.204921 1.077277 -1.801521
2008-02-27 08:13:20 51°13.262 2°46.907 13.9197 0.204921 1.07726 -1.766697
2008-02-27 08:13:25 51°13.251 2°46.884 13.9177 0.204921 1.077277 -1.801521
2008-02-27 08:13:30 51°13.241 2°46.86 13.9142 0.204921 1.077277 -1.766697
2008-02-27 08:13:35 51°13.23 2°46.837 13.9166 0.204921 1.077312 -1.801521
2008-02-27 08:13:40 51°13.22 2°46.814 13.9229 0.204921 1.077312 -1.801521
2008-02-27 08:13:45 51°13.209 2°46.79 13.9137 0.204921 1.077312 -1.801521
2008-02-27 08:13:50 51°13.198 2°46.767 13.9339 0.204921 1.077312 -1.801521
2008-02-27 08:13:55 51°13.189 2°46.743 13.9026 0.204921 1.077347 -1.766697
2008-02-27 08:14:00 51°13.178 2°46.72 13.9223 0.204921 1.077329 -1.801521
2008-02-27 08:14:05 51°13.167 2°46.696 13.9227 0.204921 1.077347 -1.766697
2008-02-27 08:14:10 51°13.156 2°46.673 13.913 0.204921 1.077347 -1.766697
2008-02-27 08:14:15 51°13.145 2°46.65 13.9237 0.204921 1.077347 -1.801521
2008-02-27 08:14:20 51°13.135 2°46.626 13.9288 0.204818 1.076795 -1.766697
2008-02-27 08:14:25 51°13.125 2°46.603 13.9207 0.204921 1.077364 -1.766697
2008-02-27 08:14:30 51°13.114 2°46.579 13.9313 0.204818 1.076813 -1.766697
2008-02-27 08:14:35 51°13.104 2°46.556 13.9298 0.204818 1.076813 -1.766697
2008-02-27 08:14:40 51°13.093 2°46.532 13.9393 0.204818 1.076813 -1.766697
2008-02-27 08:14:45 51°13.082 2°46.508 13.9236 0.204818 1.07683 -1.766697
2008-02-27 08:14:50 51°13.072 2°46.485 13.937 0.204818 1.07683 -1.801521
2008-02-27 08:14:55 51°13.061 2°46.462 13.9232 0.204818 1.076848 -1.766697
2008-02-27 08:15:00 51°13.051 2°46.438 13.9503 0.204818 1.076865 -1.766697
2008-02-27 08:15:05 51°13.04 2°46.415 13.9194 0.204818 1.076848 -1.801521
2008-02-27 08:15:10 51°13.03 2°46.391 13.9476 0.204818 1.0769 -1.801521
2008-02-27 08:15:15 51°13.019 2°46.368 13.9294 0.204818 1.0769 -1.801521
2008-02-27 08:15:20 51°13.008 2°46.345 13.9331 0.204818 1.0769 -1.766697
2008-02-27 08:15:25 51°12.998 2°46.322 13.9418 0.204818 1.076917 -1.766697
2008-02-27 08:15:30 51°12.987 2°46.299 13.9259 0.204818 1.0769 -1.766697
2008-02-27 08:15:35 51°12.977 2°46.275 13.9537 0.204818 1.076935 -1.766697
2008-02-27 08:15:40 51°12.967 2°46.251 13.9297 0.204818 1.076935 -1.766697
2008-02-27 08:15:45 51°12.956 2°46.227 13.955 0.204818 1.076917 -1.801521
2008-02-27 08:15:50 51°12.946 2°46.203 13.9378 0.204818 1.076935 -1.801521
2008-02-27 08:15:55 51°12.935 2°46.18 13.9538 0.204818 1.076917 -1.801521
2008-02-27 08:16:00 51°12.925 2°46.156 13.9352 0.204818 1.076952 -1.766697
2008-02-27 08:16:05 51°12.914 2°46.134 13.9487 0.204818 1.076935 -1.766697
2008-02-27 08:16:10 51°12.904 2°46.11 13.9638 0.204818 1.076935 -1.766697
2008-02-27 08:16:15 51°12.893 2°46.087 13.9485 0.204818 1.07697 -1.801521
2008-02-27 08:16:20 51°12.883 2°46.063 13.9527 0.204818 1.07697 -1.766697
2008-02-27 08:16:25 51°12.873 2°46.039 13.9597 0.204818 1.07697 -1.766697
2008-02-27 08:16:30 51°12.862 2°46.016 13.9585 0.204818 1.076987 -1.801521
2008-02-27 08:16:34 51°12.854 2°45.997 13.9641 0.204818 1.077005 -1.766697
2008-02-27 08:16:40 51°12.841 2°45.969 13.9539 0.204818 1.076987 -1.766697
2008-02-27 08:16:45 51°12.831 2°45.945 13.9529 0.204818 1.076987 -1.766697
2008-02-27 08:16:50 51°12.821 2°45.921 13.9611 0.204818 1.076987 -1.766697
2008-02-27 08:16:55 51°12.81 2°45.898 13.9477 0.204818 1.077005 -1.766697
2008-02-27 08:17:00 51°12.801 2°45.873 13.9638 0.204818 1.077005 -1.801521
2008-02-27 08:17:05 51°12.792 2°45.848 13.9602 0.204818 1.077022 -1.801521
2008-02-27 08:17:10 51°12.783 2°45.824 13.9644 0.204818 1.077022 -1.766697
2008-02-27 08:17:15 51°12.775 2°45.798 13.9668 0.204818 1.077022 -1.766697
2008-02-27 08:17:20 51°12.766 2°45.773 13.975 0.204818 1.077039 -1.801521
2008-02-27 08:17:25 51°12.758 2°45.748 13.9771 0.204818 1.077039 -1.801521
2008-02-27 08:17:30 51°12.749 2°45.722 13.976 0.204818 1.077074 -1.766697
2008-02-27 08:17:35 51°12.741 2°45.697 13.9569 0.204818 1.077057 -1.801521
2008-02-27 08:17:40 51°12.732 2°45.672 13.9747 0.204818 1.077074 -1.766697
2008-02-27 08:17:45 51°12.723 2°45.647 13.9775 0.204818 1.077074 -1.766697
2008-02-27 08:17:50 51°12.715 2°45.621 13.9738 0.204818 1.077074 -1.766697
2008-02-27 08:17:55 51°12.707 2°45.596 13.9767 0.204818 1.077109 -1.766697
2008-02-27 08:18:00 51°12.698 2°45.571 13.9817 0.204818 1.077109 -1.766697
2008-02-27 08:18:05 51°12.69 2°45.545 13.9864 0.204818 1.077144 -1.766697
2008-02-27 08:18:10 51°12.681 2°45.521 13.9774 0.204818 1.077144 -1.766697
2008-02-27 08:18:15 51°12.673 2°45.495 13.9771 0.204818 1.077109 -1.766697
2008-02-27 08:18:20 51°12.664 2°45.47 13.9763 0.204818 1.077144 -1.801521
2008-02-27 08:18:25 51°12.657 2°45.444 13.9888 0.204818 1.077109 -1.766697
2008-02-27 08:18:30 51°12.65 2°45.418 13.9836 0.204818 1.077144 -1.766697
2008-02-27 08:18:35 51°12.642 2°45.393 13.9883 0.204818 1.077144 -1.766697
2008-02-27 08:18:40 51°12.636 2°45.367 13.9757 0.204818 1.077161 -1.766697
2008-02-27 08:18:45 51°12.629 2°45.341 13.9934 0.204818 1.077161 -1.766697
2008-02-27 08:18:50 51°12.622 2°45.314 13.9771 0.204818 1.077196 -1.801521
2008-02-27 08:18:55 51°12.614 2°45.288 13.9989 0.204818 1.077179 -1.801521
2008-02-27 08:19:00 51°12.608 2°45.262 13.9915 0.204818 1.077196 -1.766697
2008-02-27 08:19:05 51°12.601 2°45.236 14.0018 0.204818 1.077196 -1.766697
2008-02-27 08:19:10 51°12.594 2°45.209 13.9873 0.204818 1.077196 -1.766697
2008-02-27 08:19:15 51°12.587 2°45.183 14.0006 0.204818 1.077196 -1.766697
2008-02-27 08:19:20 51°12.58 2°45.156 14.0003 0.204818 1.077231 -1.766697
2008-02-27 08:19:25 51°12.573 2°45.13 14.0013 0.204818 1.077214 -1.766697
2008-02-27 08:19:30 51°12.567 2°45.104 13.9913 0.204818 1.077214 -1.766697
2008-02-27 08:19:35 51°12.56 2°45.077 13.9996 0.204818 1.077214 -1.801521
2008-02-27 08:19:40 51°12.554 2°45.05 14.0077 0.204818 1.077214 -1.801521
2008-02-27 08:19:45 51°12.546 2°45.024 14.0024 0.204818 1.077231 -1.801521
2008-02-27 08:19:50 51°12.54 2°44.998 14.0032 0.204818 1.077249 -1.801521
2008-02-27 08:19:55 51°12.532 2°44.972 14.0066 0.204818 1.077249 -1.766697
2008-02-27 08:20:00 51°12.525 2°44.945 14.0135 0.204818 1.077266 -1.766697
2008-02-27 08:20:05 51°12.518 2°44.919 13.9992 0.204818 1.077266 -1.801521
2008-02-27 08:20:10 51°12.511 2°44.893 14.0121 0.204818 1.077284 -1.766697
2008-02-27 08:20:15 51°12.504 2°44.867 14.006 0.204818 1.077284 -1.766697
2008-02-27 08:20:20 51°12.497 2°44.84 14.0082 0.204818 1.077266 -1.801521
2008-02-27 08:20:25 51°12.489 2°44.814 14.0101 0.204715 1.076715 -1.766697
2008-02-27 08:20:30 51°12.483 2°44.788 14.0078 0.204715 1.076749 -1.801521
2008-02-27 08:20:35 51°12.475 2°44.762 14.0142 0.204715 1.076749 -1.766697
2008-02-27 08:20:40 51°12.468 2°44.736 14.0106 0.204715 1.076767 -1.801521
2008-02-27 08:20:45 51°12.46 2°44.71 14.0178 0.204715 1.076767 -1.801521
2008-02-27 08:20:50 51°12.454 2°44.684 14.0181 0.204715 1.076732 -1.801521
2008-02-27 08:20:55 51°12.447 2°44.657 14.0213 0.204715 1.076767 -1.766697
2008-02-27 08:21:00 51°12.439 2°44.631 14.022 0.204715 1.076749 -1.801521
2008-02-27 08:21:05 51°12.433 2°44.605 14.0166 0.204715 1.076767 -1.766697
2008-02-27 08:21:10 51°12.426 2°44.579 14.024 0.204715 1.076784 -1.801521
2008-02-27 08:21:15 51°12.419 2°44.552 14.0151 0.204715 1.076784 -1.801521
2008-02-27 08:21:20 51°12.412 2°44.525 14.0251 0.204715 1.076749 -1.766697
2008-02-27 08:21:25 51°12.405 2°44.499 14.0261 0.204715 1.076784 -1.766697
2008-02-27 08:21:30 51°12.398 2°44.472 14.029 0.204715 1.076784 -1.766697
2008-02-27 08:21:35 51°12.391 2°44.445 14.0346 0.204715 1.076802 -1.801521
2008-02-27 08:21:40 51°12.384 2°44.419 14.0224 0.204715 1.076802 -1.801521
2008-02-27 08:21:45 51°12.377 2°44.392 14.0337 0.204715 1.076819 -1.766697
2008-02-27 08:21:50 51°12.371 2°44.366 14.0173 0.204715 1.076837 -1.766697
2008-02-27 08:21:55 51°12.363 2°44.34 14.036 0.204715 1.076802 -1.801521
2008-02-27 08:22:00 51°12.357 2°44.313 14.0194 0.204715 1.076854 -1.766697
2008-02-27 08:22:05 51°12.349 2°44.288 14.031 0.204715 1.076819 -1.766697
2008-02-27 08:22:10 51°12.342 2°44.262 14.0386 0.204715 1.076837 -1.766697
2008-02-27 08:22:15 51°12.335 2°44.236 14.041 0.204715 1.076837 -1.766697
2008-02-27 08:22:20 51°12.328 2°44.21 14.0333 0.204715 1.076854 -1.801521
2008-02-27 08:22:25 51°12.321 2°44.183 14.0425 0.204715 1.076837 -1.766697
2008-02-27 08:22:30 51°12.313 2°44.157 14.0346 0.204715 1.076871 -1.766697
2008-02-27 08:22:35 51°12.306 2°44.131 14.0472 0.204715 1.076854 -1.801521
2008-02-27 08:22:40 51°12.299 2°44.105 14.0326 0.204715 1.076871 -1.801521
2008-02-27 08:22:45 51°12.292 2°44.079 14.0495 0.204715 1.076871 -1.801521
2008-02-27 08:22:50 51°12.285 2°44.052 14.0493 0.204715 1.076889 -1.801521
2008-02-27 08:22:55 51°12.277 2°44.027 14.0393 0.204715 1.076889 -1.801521
2008-02-27 08:23:00 51°12.271 2°44 14.0577 0.204715 1.076906 -1.766697
2008-02-27 08:23:05 51°12.263 2°43.974 14.0363 0.204715 1.076906 -1.766697
2008-02-27 08:23:10 51°12.255 2°43.949 14.0559 0.204715 1.076906 -1.766697
2008-02-27 08:23:15 51°12.248 2°43.923 14.0529 0.204715 1.076924 -1.801521
2008-02-27 08:23:20 51°12.24 2°43.898 14.0495 0.204715 1.076924 -1.766697
2008-02-27 08:23:25 51°12.232 2°43.872 14.0567 0.204715 1.076941 -1.766697
2008-02-27 08:23:30 51°12.225 2°43.846 14.054 0.204715 1.076941 -1.801521
2008-02-27 08:23:35 51°12.217 2°43.821 14.0544 0.204715 1.076941 -1.766697
2008-02-27 08:23:40 51°12.209 2°43.796 14.0568 0.204715 1.076941 -1.801521
2008-02-27 08:23:45 51°12.202 2°43.77 14.0534 0.204715 1.076941 -1.801521
2008-02-27 08:23:50 51°12.193 2°43.744 14.0577 0.204715 1.076941 -1.801521
2008-02-27 08:23:55 51°12.186 2°43.719 14.0612 0.204715 1.076959 -1.766697
2008-02-27 08:24:00 51°12.178 2°43.693 14.0578 0.204715 1.076941 -1.766697
2008-02-27 08:24:05 51°12.171 2°43.667 14.0598 0.204715 1.076959 -1.766697
2008-02-27 08:24:10 51°12.163 2°43.641 14.056 0.204715 1.076959 -1.801521
2008-02-27 08:24:15 51°12.155 2°43.616 14.0668 0.204715 1.076959 -1.801521
2008-02-27 08:24:20 51°12.147 2°43.59 14.063 0.204715 1.076994 -1.766697
2008-02-27 08:24:25 51°12.14 2°43.564 14.0705 0.204715 1.076994 -1.766697
2008-02-27 08:24:30 51°12.132 2°43.539 14.0523 0.204715 1.077011 -1.766697
2008-02-27 08:24:35 51°12.124 2°43.513 14.0737 0.204715 1.077028 -1.766697
2008-02-27 08:24:40 51°12.116 2°43.487 14.0558 0.204715 1.077011 -1.766697
2008-02-27 08:24:45 51°12.108 2°43.461 14.0693 0.204715 1.077011 -1.766697
2008-02-27 08:24:50 51°12.101 2°43.436 14.0514 0.204715 1.077046 -1.766697
2008-02-27 08:24:55 51°12.092 2°43.41 14.0764 0.204715 1.077028 -1.766697
2008-02-27 08:25:00 51°12.085 2°43.384 14.0664 0.204715 1.077046 -1.801521
2008-02-27 08:25:05 51°12.077 2°43.358 14.0738 0.204715 1.077028 -1.766697
2008-02-27 08:25:10 51°12.069 2°43.332 14.0769 0.204715 1.077028 -1.766697
2008-02-27 08:25:15 51°12.061 2°43.306 14.0751 0.204715 1.077063 -1.801521
2008-02-27 08:25:20 51°12.054 2°43.281 14.0798 0.204715 1.077046 -1.766697
2008-02-27 08:25:25 51°12.047 2°43.255 14.0826 0.204715 1.077063 -1.801521
2008-02-27 08:25:30 51°12.039 2°43.229 14.08 0.204715 1.077063 -1.801521
2008-02-27 08:25:35 51°12.031 2°43.204 14.0788 0.204715 1.077063 -1.766697
2008-02-27 08:25:40 51°12.023 2°43.179 14.088 0.204715 1.077081 -1.766697
2008-02-27 08:25:45 51°12.016 2°43.153 14.0855 0.204715 1.077081 -1.766697
2008-02-27 08:25:50 51°12.008 2°43.127 14.0871 0.204715 1.077081 -1.766697
2008-02-27 08:25:55 51°11.999 2°43.102 14.0865 0.204715 1.077116 -1.766697
2008-02-27 08:26:00 51°11.99 2°43.078 14.0876 0.204715 1.077116 -1.766697
2008-02-27 08:26:05 51°11.981 2°43.053 14.0834 0.204715 1.077116 -1.766697
2008-02-27 08:26:10 51°11.972 2°43.029 14.0885 0.204715 1.077116 -1.766697
2008-02-27 08:26:15 51°11.963 2°43.005 14.0712 0.204715 1.077116 -1.766697
2008-02-27 08:26:20 51°11.953 2°42.981 14.0956 0.204715 1.077098 -1.801521
2008-02-27 08:26:25 51°11.944 2°42.957 14.0749 0.204715 1.077133 -1.766697
2008-02-27 08:26:30 51°11.934 2°42.933 14.0978 0.204715 1.077133 -1.766697
2008-02-27 08:26:35 51°11.925 2°42.909 14.1012 0.204715 1.077151 -1.801521
2008-02-27 08:26:40 51°11.916 2°42.885 14.0948 0.204715 1.077151 -1.801521
2008-02-27 08:26:45 51°11.907 2°42.861 14.1003 0.204715 1.077151 -1.766697
2008-02-27 08:26:50 51°11.897 2°42.837 14.0929 0.204715 1.077168 -1.766697
2008-02-27 08:26:55 51°11.888 2°42.812 14.1018 0.204715 1.077151 -1.766697
2008-02-27 08:27:00 51°11.878 2°42.788 14.0985 0.204715 1.077168 -1.766697
2008-02-27 08:27:05 51°11.869 2°42.764 14.096 0.204715 1.077185 -1.766697
2008-02-27 08:27:10 51°11.859 2°42.74 14.093 0.204715 1.077185 -1.766697
2008-02-27 08:27:15 51°11.849 2°42.716 14.1028 0.204715 1.077185 -1.766697
2008-02-27 08:27:20 51°11.839 2°42.692 14.0959 0.204612 1.076616 -1.766697
2008-02-27 08:27:25 51°11.83 2°42.669 14.1034 0.204715 1.077168 -1.801521
2008-02-27 08:27:30 51°11.82 2°42.645 14.1062 0.204612 1.076634 -1.766697
2008-02-27 08:27:34 51°11.812 2°42.626 14.1082 0.204612 1.076634 -1.801521
2008-02-27 08:27:40 51°11.801 2°42.597 14.0999 0.204612 1.076616 -1.801521
2008-02-27 08:27:45 51°11.792 2°42.573 14.1087 0.204612 1.076616 -1.801521
2008-02-27 08:27:50 51°11.782 2°42.549 14.1182 0.204612 1.076651 -1.766697
2008-02-27 08:27:55 51°11.773 2°42.525 14.1114 0.204612 1.076686 -1.766697
2008-02-27 08:28:00 51°11.763 2°42.501 14.1166 0.204715 1.077203 -1.766697
2008-02-27 08:28:05 51°11.754 2°42.476 14.1176 0.204612 1.076703 -1.766697
2008-02-27 08:28:10 51°11.744 2°42.453 14.1169 0.204612 1.076686 -1.766697
2008-02-27 08:28:15 51°11.735 2°42.428 14.1184 0.204612 1.076686 -1.766697
2008-02-27 08:28:20 51°11.726 2°42.404 14.1171 0.204612 1.076703 -1.766697
2008-02-27 08:28:25 51°11.717 2°42.379 14.1238 0.204612 1.076703 -1.766697
2008-02-27 08:28:30 51°11.708 2°42.355 14.1269 0.204612 1.076703 -1.801521
2008-02-27 08:28:35 51°11.699 2°42.33 14.119 0.204612 1.076721 -1.766697
2008-02-27 08:28:40 51°11.689 2°42.306 14.1264 0.204612 1.076721 -1.766697
2008-02-27 08:28:45 51°11.679 2°42.281 14.1253 0.204612 1.076721 -1.801521
2008-02-27 08:28:50 51°11.669 2°42.258 14.1315 0.204612 1.076738 -1.801521
2008-02-27 08:28:55 51°11.658 2°42.235 14.1267 0.204612 1.076756 -1.766697
2008-02-27 08:29:00 51°11.648 2°42.212 14.1259 0.204612 1.076756 -1.766697
2008-02-27 08:29:05 51°11.637 2°42.189 14.1274 0.204612 1.076756 -1.801521
2008-02-27 08:29:10 51°11.627 2°42.166 14.1282 0.204612 1.076773 -1.766697
2008-02-27 08:29:15 51°11.616 2°42.144 14.1212 0.204612 1.076773 -1.766697
2008-02-27 08:29:20 51°11.605 2°42.121 14.1432 0.204612 1.076738 -1.766697
2008-02-27 08:29:25 51°11.595 2°42.098 14.1344 0.204612 1.076791 -1.801521
2008-02-27 08:29:30 51°11.583 2°42.075 14.1384 0.204612 1.076773 -1.766697
2008-02-27 08:29:35 51°11.573 2°42.051 14.1341 0.204612 1.076791 -1.766697
2008-02-27 08:29:40 51°11.562 2°42.029 14.134 0.204612 1.076773 -1.801521
2008-02-27 08:29:45 51°11.552 2°42.005 14.138 0.204612 1.076773 -1.801521
2008-02-27 08:29:50 51°11.541 2°41.982 14.1465 0.204612 1.076808 -1.801521
2008-02-27 08:29:55 51°11.53 2°41.959 14.1398 0.204612 1.076808 -1.766697
2008-02-27 08:30:00 51°11.52 2°41.935 14.1541 0.204612 1.076826 -1.766697
2008-02-27 08:30:05 51°11.509 2°41.913 14.139 0.204612 1.076808 -1.766697
2008-02-27 08:30:10 51°11.498 2°41.89 14.1508 0.204612 1.076826 -1.801521
2008-02-27 08:30:15 51°11.488 2°41.867 14.1395 0.204612 1.076826 -1.801521
2008-02-27 08:30:20 51°11.476 2°41.844 14.1427 0.204612 1.076826 -1.766697
2008-02-27 08:30:25 51°11.466 2°41.821 14.1542 0.204612 1.076826 -1.766697
2008-02-27 08:30:30 51°11.455 2°41.798 14.1357 0.204612 1.076826 -1.766697
2008-02-27 08:30:35 51°11.445 2°41.775 14.1564 0.204612 1.07686 -1.766697
2008-02-27 08:30:40 51°11.434 2°41.752 14.1588 0.204612 1.07686 -1.766697
2008-02-27 08:30:45 51°11.423 2°41.729 14.1508 0.204612 1.07686 -1.766697
2008-02-27 08:30:50 51°11.412 2°41.705 14.1602 0.204612 1.07686 -1.766697
2008-02-27 08:30:55 51°11.402 2°41.682 14.1627 0.204612 1.076895 -1.801521
2008-02-27 08:31:00 51°11.391 2°41.659 14.1588 0.204612 1.076878 -1.801521
2008-02-27 08:31:05 51°11.381 2°41.634 14.1583 0.204612 1.076913 -1.801521
2008-02-27 08:31:10 51°11.37 2°41.612 14.1556 0.204612 1.076895 -1.801521
2008-02-27 08:31:15 51°11.359 2°41.589 14.1725 0.204612 1.076895 -1.801521
2008-02-27 08:31:20 51°11.349 2°41.565 14.1499 0.204612 1.07693 -1.766697
2008-02-27 08:31:25 51°11.338 2°41.541 14.1694 0.204612 1.076913 -1.801521
2008-02-27 08:31:30 51°11.328 2°41.518 14.164 0.204612 1.07693 -1.766697
2008-02-27 08:31:35 51°11.317 2°41.495 14.1751 0.204612 1.07693 -1.766697
2008-02-27 08:31:40 51°11.306 2°41.471 14.1674 0.204612 1.076948 -1.766697
2008-02-27 08:31:45 51°11.296 2°41.448 14.1746 0.204612 1.076948 -1.766697
2008-02-27 08:31:50 51°11.285 2°41.424 14.1691 0.204612 1.076948 -1.801521
2008-02-27 08:31:55 51°11.274 2°41.401 14.174 0.204612 1.076948 -1.801521
2008-02-27 08:32:00 51°11.264 2°41.377 14.1804 0.204612 1.076965 -1.801521
2008-02-27 08:32:05 51°11.253 2°41.354 14.1808 0.204612 1.076948 -1.766697
2008-02-27 08:32:10 51°11.243 2°41.33 14.1762 0.204612 1.076948 -1.766697
2008-02-27 08:32:15 51°11.231 2°41.307 14.1817 0.204612 1.076965 -1.801521
2008-02-27 08:32:20 51°11.221 2°41.284 14.1749 0.204612 1.076983 -1.801521
2008-02-27 08:32:25 51°11.21 2°41.261 14.1756 0.204612 1.076983 -1.766697
2008-02-27 08:32:30 51°11.199 2°41.237 14.1871 0.204612 1.077 -1.801521
2008-02-27 08:32:35 51°11.188 2°41.215 14.1787 0.204612 1.077 -1.766697
2008-02-27 08:32:40 51°11.178 2°41.191 14.1769 0.204612 1.077 -1.766697
2008-02-27 08:32:45 51°11.167 2°41.168 14.187 0.204612 1.077 -1.766697
2008-02-27 08:32:50 51°11.156 2°41.145 14.1871 0.204612 1.077018 -1.801521
2008-02-27 08:32:55 51°11.146 2°41.121 14.1866 0.204612 1.077035 -1.766697
2008-02-27 08:33:00 51°11.136 2°41.097 14.1838 0.204612 1.077035 -1.766697
2008-02-27 08:33:05 51°11.124 2°41.074 14.1951 0.204612 1.077035 -1.801521
2008-02-27 08:33:10 51°11.114 2°41.05 14.1984 0.204612 1.077035 -1.766697
2008-02-27 08:33:15 51°11.104 2°41.026 14.1978 0.204612 1.077035 -1.766697
2008-02-27 08:33:20 51°11.093 2°41.002 14.1876 0.204612 1.077052 -1.801521
2008-02-27 08:33:25 51°11.082 2°40.979 14.183 0.204612 1.077052 -1.801521
2008-02-27 08:33:30 51°11.072 2°40.955 14.1982 0.204612 1.07707 -1.766697
2008-02-27 08:33:35 51°11.061 2°40.931 14.1998 0.204612 1.07707 -1.766697
2008-02-27 08:33:40 51°11.05 2°40.908 14.2124 0.204612 1.077105 -1.801521
2008-02-27 08:33:45 51°11.04 2°40.884 14.1967 0.204612 1.077105 -1.801521
2008-02-27 08:33:50 51°11.028 2°40.86 14.2003 0.204612 1.077105 -1.766697
2008-02-27 08:33:55 51°11.018 2°40.836 14.1991 0.204612 1.07714 -1.801521
2008-02-27 08:34:00 51°11.007 2°40.813 14.2014 0.204612 1.077105 -1.766697
2008-02-27 08:34:05 51°10.997 2°40.789 14.2049 0.204612 1.07714 -1.801521
2008-02-27 08:34:10 51°10.986 2°40.766 14.1958 0.204612 1.07714 -1.801521
2008-02-27 08:34:15 51°10.975 2°40.742 14.205 0.204612 1.07714 -1.801521
2008-02-27 08:34:20 51°10.965 2°40.718 14.2121 0.204612 1.07714 -1.801521
2008-02-27 08:34:25 51°10.954 2°40.695 14.1927 0.204612 1.077157 -1.766697
2008-02-27 08:34:30 51°10.943 2°40.672 14.2215 0.204509 1.076588 -1.766697
2008-02-27 08:34:35 51°10.932 2°40.648 14.2021 0.204509 1.076588 -1.766697
2008-02-27 08:34:40 51°10.921 2°40.625 14.2113 0.204509 1.076605 -1.801521
2008-02-27 08:34:45 51°10.91 2°40.602 14.2029 0.204509 1.076605 -1.801521
2008-02-27 08:34:50 51°10.899 2°40.578 14.2138 0.204509 1.076623 -1.801521
2008-02-27 08:34:55 51°10.889 2°40.555 14.2066 0.204509 1.076623 -1.801521
2008-02-27 08:35:00 51°10.878 2°40.531 14.2166 0.204509 1.076623 -1.766697
2008-02-27 08:35:05 51°10.867 2°40.507 14.2267 0.204509 1.076623 -1.766697
2008-02-27 08:35:10 51°10.857 2°40.483 14.2035 0.204509 1.07664 -1.801521
2008-02-27 08:35:15 51°10.846 2°40.46 14.228 0.204509 1.07664 -1.801521
2008-02-27 08:35:20 51°10.836 2°40.434 14.2103 0.204509 1.076658 -1.766697
2008-02-27 08:35:25 51°10.824 2°40.412 14.2219 0.204509 1.076658 -1.766697
2008-02-27 08:35:30 51°10.814 2°40.387 14.2107 0.204509 1.076675 -1.801521
2008-02-27 08:35:35 51°10.803 2°40.364 14.2226 0.204509 1.076658 -1.766697
2008-02-27 08:35:40 51°10.793 2°40.339 14.2249 0.204509 1.07671 -1.766697
2008-02-27 08:35:45 51°10.781 2°40.316 14.2206 0.204509 1.07671 -1.766697
2008-02-27 08:35:50 51°10.771 2°40.291 14.2384 0.204509 1.076675 -1.801521
2008-02-27 08:35:55 51°10.76 2°40.268 14.2225 0.204509 1.07671 -1.766697
2008-02-27 08:36:00 51°10.749 2°40.244 14.2343 0.204509 1.07671 -1.801521
2008-02-27 08:36:05 51°10.739 2°40.22 14.2316 0.204509 1.076727 -1.801521
2008-02-27 08:36:10 51°10.728 2°40.197 14.2336 0.204509 1.076727 -1.801521
2008-02-27 08:36:15 51°10.717 2°40.173 14.2368 0.204509 1.076727 -1.801521
2008-02-27 08:36:20 51°10.706 2°40.149 14.2301 0.204509 1.076745 -1.766697
2008-02-27 08:36:25 51°10.696 2°40.125 14.2421 0.204509 1.076727 -1.766697
2008-02-27 08:36:30 51°10.685 2°40.102 14.2234 0.204509 1.076727 -1.801521
2008-02-27 08:36:35 51°10.674 2°40.078 14.2482 0.204509 1.076762 -1.801521
2008-02-27 08:36:40 51°10.663 2°40.054 14.2424 0.204509 1.076745 -1.801521
2008-02-27 08:36:45 51°10.653 2°40.03 14.2406 0.204509 1.076745 -1.801521
2008-02-27 08:36:50 51°10.642 2°40.006 14.2361 0.204509 1.07678 -1.801521
2008-02-27 08:36:55 51°10.632 2°39.982 14.2462 0.204509 1.07678 -1.766697
2008-02-27 08:37:00 51°10.621 2°39.959 14.2401 0.204509 1.07678 -1.766697
2008-02-27 08:37:05 51°10.61 2°39.936 14.2366 0.204509 1.076797 -1.766697
2008-02-27 08:37:10 51°10.598 2°39.913 14.2475 0.204509 1.076815 -1.801521
2008-02-27 08:37:15 51°10.588 2°39.889 14.2382 0.204509 1.076815 -1.801521
2008-02-27 08:37:20 51°10.577 2°39.866 14.2583 0.204509 1.076797 -1.801521
2008-02-27 08:37:25 51°10.567 2°39.842 14.2484 0.204509 1.076832 -1.801521
2008-02-27 08:37:30 51°10.556 2°39.818 14.2469 0.204509 1.076815 -1.801521
2008-02-27 08:37:35 51°10.545 2°39.794 14.2501 0.204509 1.076832 -1.766697
2008-02-27 08:37:40 51°10.534 2°39.771 14.2518 0.204509 1.076832 -1.766697
2008-02-27 08:37:45 51°10.524 2°39.747 14.2409 0.204509 1.07685 -1.801521
2008-02-27 08:37:50 51°10.512 2°39.723 14.2652 0.204509 1.076815 -1.801521
2008-02-27 08:37:55 51°10.502 2°39.699 14.248 0.204509 1.076885 -1.801521
2008-02-27 08:38:00 51°10.491 2°39.676 14.2643 0.204509 1.076867 -1.801521
2008-02-27 08:38:05 51°10.481 2°39.652 14.2467 0.204509 1.076867 -1.766697
2008-02-27 08:38:10 51°10.47 2°39.628 14.2641 0.204509 1.076885 -1.766697
2008-02-27 08:38:15 51°10.46 2°39.603 14.2546 0.204509 1.076885 -1.766697
2008-02-27 08:38:20 51°10.45 2°39.578 14.2691 0.204509 1.076885 -1.801521
2008-02-27 08:38:25 51°10.441 2°39.553 14.2563 0.204509 1.076919 -1.766697
2008-02-27 08:38:30 51°10.431 2°39.528 14.2756 0.204509 1.076885 -1.766697
2008-02-27 08:38:35 51°10.422 2°39.502 14.2577 0.204509 1.076919 -1.801521
2008-02-27 08:38:40 51°10.412 2°39.477 14.2744 0.204509 1.076902 -1.766697
2008-02-27 08:38:45 51°10.403 2°39.451 14.2747 0.204509 1.076902 -1.766697
2008-02-27 08:38:50 51°10.393 2°39.426 14.2744 0.204509 1.076919 -1.766697
2008-02-27 08:38:55 51°10.383 2°39.401 14.2633 0.204509 1.076937 -1.801521
2008-02-27 08:39:00 51°10.374 2°39.376 14.2772 0.204509 1.076937 -1.801521
2008-02-27 08:39:05 51°10.364 2°39.351 14.2688 0.204509 1.076937 -1.801521
2008-02-27 08:39:10 51°10.354 2°39.326 14.2822 0.204509 1.076954 -1.801521
2008-02-27 08:39:15 51°10.345 2°39.301 14.266 0.204509 1.076954 -1.801521
2008-02-27 08:39:20 51°10.335 2°39.276 14.2825 0.204509 1.076954 -1.801521
2008-02-27 08:39:25 51°10.326 2°39.251 14.279 0.204509 1.076972 -1.766697
2008-02-27 08:39:30 51°10.316 2°39.226 14.2878 0.204509 1.076972 -1.801521
2008-02-27 08:39:35 51°10.307 2°39.201 14.2724 0.204509 1.076972 -1.801521
2008-02-27 08:39:40 51°10.297 2°39.175 14.2843 0.204509 1.076972 -1.801521
2008-02-27 08:39:45 51°10.288 2°39.15 14.2872 0.204509 1.077007 -1.766697
2008-02-27 08:39:50 51°10.278 2°39.125 14.2912 0.204509 1.077007 -1.766697
2008-02-27 08:39:55 51°10.268 2°39.1 14.285 0.204509 1.077024 -1.801521
2008-02-27 08:40:00 51°10.259 2°39.074 14.2944 0.204509 1.077042 -1.766697
2008-02-27 08:40:05 51°10.249 2°39.049 14.2814 0.204509 1.077042 -1.766697
2008-02-27 08:40:10 51°10.24 2°39.023 14.2982 0.204509 1.077059 -1.766697
2008-02-27 08:40:15 51°10.23 2°38.998 14.2912 0.204509 1.077059 -1.766697
2008-02-27 08:40:20 51°10.221 2°38.973 14.284 0.204509 1.077077 -1.801521
2008-02-27 08:40:25 51°10.211 2°38.947 14.2947 0.204509 1.077042 -1.766697
2008-02-27 08:40:30 51°10.203 2°38.921 14.2784 0.204509 1.077077 -1.766697
2008-02-27 08:40:35 51°10.193 2°38.896 14.2954 0.204509 1.077059 -1.801521
2008-02-27 08:40:40 51°10.185 2°38.869 14.293 0.204509 1.077077 -1.801521
2008-02-27 08:40:45 51°10.176 2°38.844 14.2872 0.204509 1.077077 -1.801521
2008-02-27 08:40:50 51°10.167 2°38.817 14.3022 0.204509 1.077077 -1.766697
2008-02-27 08:40:55 51°10.158 2°38.791 14.2979 0.204406 1.076542 -1.801521
2008-02-27 08:41:00 51°10.15 2°38.765 14.3013 0.204406 1.076524 -1.801521
2008-02-27 08:41:05 51°10.141 2°38.74 14.2828 0.204406 1.076524 -1.801521
2008-02-27 08:41:10 51°10.133 2°38.716 14.313 0.204406 1.076524 -1.801521
2008-02-27 08:41:15 51°10.126 2°38.695 14.3029 0.204406 1.076542 -1.801521
2008-02-27 08:41:20 51°10.119 2°38.675 14.3155 0.204406 1.076542 -1.801521
2008-02-27 08:41:25 51°10.113 2°38.656 14.3162 0.204406 1.076559 -1.766697
2008-02-27 08:41:30 51°10.108 2°38.639 14.3222 0.204406 1.076577 -1.766697
2008-02-27 08:41:35 51°10.103 2°38.623 14.3209 0.204406 1.076577 -1.801521
2008-02-27 08:41:40 51°10.098 2°38.608 14.3166 0.204406 1.076612 -1.801521
2008-02-27 08:41:45 51°10.093 2°38.594 14.3255 0.204406 1.076612 -1.801521
2008-02-27 08:41:50 51°10.089 2°38.58 14.3211 0.204406 1.076612 -1.766697
2008-02-27 08:41:55 51°10.085 2°38.568 14.322 0.204406 1.076594 -1.766697
2008-02-27 08:42:00 51°10.081 2°38.555 14.3256 0.204406 1.076612 -1.766697
2008-02-27 08:42:05 51°10.077 2°38.544 14.3325 0.204406 1.076612 -1.766697
2008-02-27 08:42:10 51°10.074 2°38.532 14.3264 0.204406 1.076612 -1.801521
2008-02-27 08:42:15 51°10.07 2°38.522 14.3381 0.204406 1.076612 -1.801521
2008-02-27 08:42:20 51°10.067 2°38.512 14.3325 0.204406 1.076629 -1.766697
2008-02-27 08:42:25 51°10.064 2°38.502 14.3347 0.204406 1.076647 -1.766697
2008-02-27 08:42:30 51°10.061 2°38.494 14.3386 0.204406 1.076629 -1.801521
2008-02-27 08:42:35 51°10.058 2°38.485 14.3413 0.204406 1.076629 -1.801521
2008-02-27 08:42:40 51°10.055 2°38.477 14.3375 0.204406 1.076664 -1.801521
2008-02-27 08:42:45 51°10.052 2°38.469 14.3317 0.204406 1.076664 -1.801521
2008-02-27 08:42:50 51°10.049 2°38.462 14.3318 0.204406 1.076682 -1.766697
2008-02-27 08:42:55 51°10.047 2°38.455 14.3299 0.204406 1.076682 -1.766697
2008-02-27 08:43:00 51°10.044 2°38.448 14.3435 0.204406 1.076682 -1.801521
2008-02-27 08:43:05 51°10.041 2°38.441 14.3445 0.204406 1.076682 -1.766697
2008-02-27 08:43:10 51°10.039 2°38.434 14.3423 0.204406 1.076682 -1.766697
2008-02-27 08:43:15 51°10.036 2°38.428 14.3426 0.204406 1.076682 -1.766697
2008-02-27 08:43:20 51°10.034 2°38.422 14.3383 0.204406 1.076682 -1.801521
2008-02-27 08:43:25 51°10.031 2°38.416 14.3486 0.204406 1.076682 -1.766697
2008-02-27 08:43:30 51°10.029 2°38.41 14.3476 0.204406 1.076699 -1.801521
2008-02-27 08:43:35 51°10.026 2°38.405 14.3506 0.204406 1.076717 -1.801521
2008-02-27 08:43:40 51°10.024 2°38.4 14.3487 0.204406 1.076717 -1.766697
2008-02-27 08:43:45 51°10.022 2°38.394 14.3514 0.204406 1.076717 -1.766697
2008-02-27 08:43:50 51°10.02 2°38.39 14.3565 0.204406 1.076734 -1.801521
2008-02-27 08:43:55 51°10.017 2°38.385 14.3554 0.204406 1.076751 -1.766697
2008-02-27 08:44:00 51°10.015 2°38.38 14.3407 0.204406 1.076751 -1.766697
2008-02-27 08:44:05 51°10.013 2°38.375 14.3498 0.204406 1.076751 -1.766697
2008-02-27 08:44:10 51°10.011 2°38.37 14.356 0.204406 1.076751 -1.801521
2008-02-27 08:44:15 51°10.009 2°38.366 14.361 0.204406 1.076751 -1.801521
2008-02-27 08:44:20 51°10.007 2°38.362 14.3625 0.204406 1.076786 -1.766697
2008-02-27 08:44:25 51°10.005 2°38.358 14.3601 0.204406 1.076786 -1.801521
2008-02-27 08:44:30 51°10.003 2°38.354 14.3607 0.204406 1.076786 -1.766697
2008-02-27 08:44:35 51°10.001 2°38.351 14.3667 0.204406 1.076804 -1.801521
2008-02-27 08:44:40 51°9.999 2°38.347 14.3496 0.204406 1.076804 -1.801521
2008-02-27 08:44:45 51°9.997 2°38.344 14.3606 0.204406 1.076821 -1.766697
2008-02-27 08:44:50 51°9.995 2°38.341 14.3663 0.204406 1.076821 -1.801521
2008-02-27 08:44:55 51°9.993 2°38.338 14.3657 0.204406 1.076821 -1.801521
2008-02-27 08:45:00 51°9.991 2°38.334 14.3645 0.204406 1.076839 -1.766697
2008-02-27 08:45:05 51°9.989 2°38.331 14.3672 0.204406 1.076839 -1.801521
2008-02-27 08:45:10 51°9.987 2°38.328 14.3672 0.204406 1.076821 -1.766697
2008-02-27 08:45:15 51°9.985 2°38.325 14.3711 0.204406 1.076821 -1.766697
2008-02-27 08:45:20 51°9.984 2°38.322 14.3716 0.204406 1.076839 -1.766697
2008-02-27 08:45:25 51°9.982 2°38.319 14.3718 0.204406 1.076839 -1.766697
2008-02-27 08:45:30 51°9.98 2°38.316 14.3688 0.204406 1.076856 -1.801521
2008-02-27 08:45:35 51°9.978 2°38.313 14.3733 0.204406 1.076856 -1.766697
2008-02-27 08:45:40 51°9.976 2°38.311 14.3696 0.204406 1.076856 -1.801521
2008-02-27 08:45:45 51°9.975 2°38.308 14.3734 0.204406 1.076856 -1.801521
2008-02-27 08:45:50 51°9.973 2°38.305 14.3731 0.204406 1.076856 -1.766697
2008-02-27 08:45:55 51°9.971 2°38.302 14.3721 0.204406 1.076874 -1.766697
2008-02-27 08:46:00 51°9.969 2°38.3 14.3831 0.204406 1.076891 -1.801521
2008-02-27 08:46:05 51°9.968 2°38.297 14.3872 0.204406 1.076891 -1.766697
2008-02-27 08:46:10 51°9.966 2°38.294 14.3815 0.204406 1.076909 -1.801521
2008-02-27 08:46:15 51°9.964 2°38.292 14.3844 0.204406 1.076909 -1.801521
2008-02-27 08:46:20 51°9.963 2°38.289 14.3782 0.204406 1.076909 -1.801521
2008-02-27 08:46:25 51°9.961 2°38.286 14.39 0.204406 1.076926 -1.801521
2008-02-27 08:46:30 51°9.959 2°38.284 14.3861 0.204406 1.076944 -1.801521
2008-02-27 08:46:35 51°9.958 2°38.281 14.3835 0.204406 1.076944 -1.801521
2008-02-27 08:46:40 51°9.956 2°38.279 14.3957 0.204406 1.076944 -1.766697
2008-02-27 08:46:45 51°9.955 2°38.276 14.3989 0.204406 1.076944 -1.766697
2008-02-27 08:46:50 51°9.953 2°38.274 14.3981 0.204406 1.076961 -1.801521
2008-02-27 08:46:55 51°9.951 2°38.271 14.3944 0.204406 1.076979 -1.766697
2008-02-27 08:47:00 51°9.949 2°38.269 14.3935 0.204406 1.076979 -1.801521
2008-02-27 08:47:05 51°9.948 2°38.267 14.4064 0.204406 1.076979 -1.766697
2008-02-27 08:47:10 51°9.946 2°38.264 14.4007 0.204406 1.076996 -1.766697
2008-02-27 08:47:15 51°9.945 2°38.262 14.4014 0.204406 1.076996 -1.766697
2008-02-27 08:47:20 51°9.943 2°38.26 14.3898 0.204406 1.076996 -1.801521
2008-02-27 08:47:25 51°9.942 2°38.258 14.402 0.204303 1.076444 -1.801521
2008-02-27 08:47:30 51°9.94 2°38.256 14.3864 0.204303 1.076461 -1.801521
2008-02-27 08:47:35 51°9.938 2°38.254 14.4028 0.204303 1.076461 -1.766697
2008-02-27 08:47:40 51°9.937 2°38.252 14.3984 0.204303 1.076461 -1.766697
2008-02-27 08:47:45 51°9.935 2°38.25 14.3984 0.204303 1.076461 -1.766697
2008-02-27 08:47:50 51°9.934 2°38.247 14.3863 0.204303 1.076461 -1.766697
2008-02-27 08:47:55 51°9.932 2°38.245 14.4057 0.204303 1.076479 -1.766697
2008-02-27 08:48:00 51°9.93 2°38.243 14.4104 0.204303 1.076496 -1.801521
2008-02-27 08:48:05 51°9.929 2°38.241 14.4103 0.204303 1.076496 -1.766697
2008-02-27 08:48:10 51°9.927 2°38.239 14.4109 0.204303 1.076514 -1.766697
2008-02-27 08:48:15 51°9.925 2°38.237 14.4137 0.204303 1.076514 -1.766697
2008-02-27 08:48:20 51°9.924 2°38.234 14.3971 0.204303 1.076514 -1.766697
2008-02-27 08:48:25 51°9.922 2°38.233 14.4102 0.204303 1.076514 -1.766697
2008-02-27 08:48:30 51°9.921 2°38.23 14.4207 0.204303 1.076531 -1.766697
2008-02-27 08:48:35 51°9.919 2°38.228 14.407 0.204303 1.076531 -1.766697
2008-02-27 08:48:40 51°9.917 2°38.226 14.4104 0.204303 1.076548 -1.766697
2008-02-27 08:48:45 51°9.916 2°38.224 14.4052 0.204303 1.076548 -1.766697
2008-02-27 08:48:50 51°9.914 2°38.221 14.4131 0.204303 1.076566 -1.766697
2008-02-27 08:48:55 51°9.913 2°38.219 14.4142 0.204303 1.076583 -1.801521
2008-02-27 08:49:00 51°9.911 2°38.217 14.4183 0.204303 1.076566 -1.801521
2008-02-27 08:49:05 51°9.91 2°38.215 14.4134 0.204303 1.076583 -1.766697
2008-02-27 08:49:10 51°9.908 2°38.213 14.4238 0.204303 1.076601 -1.801521
2008-02-27 08:49:15 51°9.906 2°38.211 14.4274 0.204303 1.076601 -1.801521
2008-02-27 08:49:20 51°9.905 2°38.21 14.4289 0.204303 1.076601 -1.801521
2008-02-27 08:49:25 51°9.903 2°38.208 14.4277 0.204303 1.076601 -1.801521
2008-02-27 08:49:30 51°9.902 2°38.206 14.4284 0.204303 1.076618 -1.766697
2008-02-27 08:49:35 51°9.9 2°38.204 14.4296 0.204303 1.076618 -1.766697
2008-02-27 08:49:40 51°9.898 2°38.202 14.4256 0.204303 1.076636 -1.801521
2008-02-27 08:49:45 51°9.897 2°38.2 14.4323 0.204303 1.076636 -1.801521
2008-02-27 08:49:50 51°9.895 2°38.199 14.4329 0.204303 1.076636 -1.801521
2008-02-27 08:49:55 51°9.893 2°38.197 14.4256 0.204303 1.076671 -1.766697
2008-02-27 08:50:00 51°9.892 2°38.195 14.428 0.204303 1.076688 -1.801521
2008-02-27 08:50:05 51°9.89 2°38.194 14.4253 0.204303 1.076688 -1.801521
2008-02-27 08:50:10 51°9.889 2°38.192 14.4409 0.204303 1.076706 -1.766697
2008-02-27 08:50:15 51°9.887 2°38.191 14.4402 0.204303 1.076706 -1.766697
2008-02-27 08:50:20 51°9.885 2°38.189 14.4421 0.204303 1.076706 -1.766697
2008-02-27 08:50:25 51°9.883 2°38.187 14.4396 0.204303 1.076706 -1.801521
2008-02-27 08:50:30 51°9.882 2°38.185 14.4414 0.204303 1.076723 -1.766697
2008-02-27 08:50:35 51°9.88 2°38.183 14.4406 0.204303 1.076706 -1.766697
2008-02-27 08:50:40 51°9.877 2°38.18 14.4446 0.204303 1.076706 -1.766697
2008-02-27 08:50:45 51°9.874 2°38.177 14.4284 0.204303 1.076706 -1.766697
2008-02-27 08:50:50 51°9.871 2°38.173 14.4438 0.204303 1.076723 -1.801521
2008-02-27 08:50:55 51°9.868 2°38.169 14.4355 0.204303 1.076723 -1.801521
2008-02-27 08:51:00 51°9.864 2°38.165 14.4485 0.204303 1.076741 -1.801521
2008-02-27 08:51:05 51°9.861 2°38.16 14.4465 0.204303 1.076758 -1.766697
2008-02-27 08:51:10 51°9.858 2°38.155 14.4532 0.204303 1.076758 -1.801521
2008-02-27 08:51:15 51°9.855 2°38.15 14.4433 0.204303 1.076758 -1.801521
2008-02-27 08:51:20 51°9.852 2°38.144 14.4428 0.204303 1.076758 -1.766697
2008-02-27 08:51:25 51°9.849 2°38.139 14.4525 0.204303 1.076776 -1.801521
2008-02-27 08:51:30 51°9.846 2°38.134 14.4583 0.204303 1.076793 -1.766697
2008-02-27 08:51:35 51°9.843 2°38.128 14.4557 0.204303 1.076793 -1.766697
2008-02-27 08:51:40 51°9.84 2°38.123 14.4633 0.204303 1.076828 -1.801521
2008-02-27 08:51:45 51°9.837 2°38.117 14.4633 0.204303 1.076828 -1.801521
2008-02-27 08:51:50 51°9.835 2°38.111 14.4572 0.204303 1.076828 -1.766697
2008-02-27 08:51:55 51°9.832 2°38.105 14.4609 0.204303 1.076828 -1.766697
2008-02-27 08:52:00 51°9.829 2°38.099 14.4435 0.204303 1.076846 -1.801521
2008-02-27 08:52:05 51°9.827 2°38.093 14.4378 0.204303 1.076846 -1.766697
2008-02-27 08:52:10 51°9.824 2°38.086 14.4532 0.204303 1.076846 -1.801521
2008-02-27 08:52:15 51°9.821 2°38.079 14.4588 0.204303 1.076846 -1.801521
2008-02-27 08:52:20 51°9.819 2°38.072 14.4666 0.204303 1.076863 -1.801521
2008-02-27 08:52:25 51°9.816 2°38.065 14.4676 0.204303 1.076881 -1.766697
2008-02-27 08:52:30 51°9.814 2°38.057 14.4663 0.204303 1.076898 -1.766697
2008-02-27 08:52:35 51°9.812 2°38.048 14.4772 0.204303 1.076898 -1.801521
2008-02-27 08:52:40 51°9.81 2°38.039 14.4775 0.204303 1.076916 -1.801521
2008-02-27 08:52:45 51°9.808 2°38.03 14.4747 0.204303 1.076916 -1.801521
2008-02-27 08:52:50 51°9.806 2°38.021 14.481 0.204303 1.076916 -1.801521
2008-02-27 08:52:55 51°9.804 2°38.013 14.4911 0.204303 1.076933 -1.801521
2008-02-27 08:53:00 51°9.803 2°38.005 14.4823 0.204303 1.076951 -1.766697
2008-02-27 08:53:05 51°9.801 2°37.998 14.4802 0.204303 1.076968 -1.801521
2008-02-27 08:53:10 51°9.799 2°37.991 14.4751 0.204303 1.076986 -1.766697
2008-02-27 08:53:15 51°9.797 2°37.983 14.4662 0.204303 1.076986 -1.766697
2008-02-27 08:53:20 51°9.795 2°37.976 14.4633 0.204303 1.076968 -1.801521
2008-02-27 08:53:25 51°9.794 2°37.97 14.4735 0.204303 1.077003 -1.801521
2008-02-27 08:53:30 51°9.792 2°37.963 14.482 0.204303 1.076986 -1.766697
2008-02-27 08:53:35 51°9.791 2°37.957 14.4857 0.204303 1.076986 -1.801521
2008-02-27 08:53:40 51°9.789 2°37.951 14.4739 0.204303 1.077003 -1.801521
2008-02-27 08:53:45 51°9.787 2°37.945 14.4667 0.204303 1.077003 -1.801521
2008-02-27 08:53:50 51°9.785 2°37.938 14.4759 0.204303 1.076234 -1.766697
2008-02-27 08:53:55 51°9.784 2°37.932 14.4833 0.2042 1.076101 -1.801521
2008-02-27 08:54:00 51°9.782 2°37.926 14.4877 0.204303 1.076601 -1.766697
2008-02-27 08:54:05 51°9.78 2°37.919 14.4875 0.204303 1.076514 -1.766697
2008-02-27 08:54:10 51°9.779 2°37.913 14.4697 0.204303 1.076374 -1.801521
2008-02-27 08:54:15 51°9.777 2°37.905 14.4709 0.204303 1.076374 -1.801521
2008-02-27 08:54:20 51°9.775 2°37.898 14.4742 0.204303 1.07578 -1.766697
2008-02-27 08:54:25 51°9.774 2°37.889 14.4882 0.204303 1.075205 -1.801521
2008-02-27 08:54:30 51°9.773 2°37.881 14.4933 0.204303 1.074856 -1.766697
2008-02-27 08:54:35 51°9.771 2°37.872 14.4818 0.204303 1.074752 -1.801521
2008-02-27 08:54:40 51°9.77 2°37.864 14.4747 0.204406 1.07499 -1.766697
2008-02-27 08:54:45 51°9.769 2°37.855 14.4978 0.204406 1.07499 -1.766697
2008-02-27 08:54:50 51°9.768 2°37.847 14.4973 0.204303 1.07423 -1.766697
2008-02-27 08:54:55 51°9.767 2°37.838 14.4849 0.204406 1.075008 -1.766697
2008-02-27 08:55:00 51°9.766 2°37.83 14.5009 0.204406 1.075199 -1.766697
2008-02-27 08:55:05 51°9.764 2°37.821 14.483 0.204406 1.075495 -1.801521
2008-02-27 08:55:10 51°9.763 2°37.813 14.481 0.204406 1.075513 -1.801521
2008-02-27 08:55:15 51°9.761 2°37.805 14.4816 0.204406 1.075513 -1.801521
2008-02-27 08:55:20 51°9.76 2°37.796 14.4879 0.204406 1.075356 -1.766697
2008-02-27 08:55:25 51°9.758 2°37.788 14.484 0.204406 1.075495 -1.766697
2008-02-27 08:55:30 51°9.757 2°37.78 14.501 0.204406 1.077766 -1.766697
2008-02-27 08:55:35 51°9.756 2°37.772 14.5056 0.204406 1.080541 -1.766697
2008-02-27 08:55:40 51°9.754 2°37.764 14.4924 0.204406 1.080541 -1.766697
2008-02-27 08:55:45 51°9.753 2°37.756 14.5013 0.204509 1.079512 -1.766697
2008-02-27 08:55:50 51°9.751 2°37.748 14.4937 0.204509 1.077461 -1.766697
2008-02-27 08:55:55 51°9.75 2°37.74 14.5046 0.204509 1.076989 -1.766697
2008-02-27 08:56:00 51°9.749 2°37.732 14.4908 0.204509 1.078074 -1.801521
2008-02-27 08:56:05 51°9.747 2°37.724 14.4945 0.204509 1.07981 -1.766697
2008-02-27 08:56:10 51°9.746 2°37.716 14.5134 0.204509 1.080549 -1.766697
2008-02-27 08:56:15 51°9.745 2°37.708 14.5128 0.204509 1.080549 -1.766697
2008-02-27 08:56:20 51°9.743 2°37.7 14.5116 0.204509 1.079687 -1.766697
2008-02-27 08:56:25 51°9.742 2°37.693 14.5002 0.204509 1.079441 -1.766697
2008-02-27 08:56:30 51°9.741 2°37.685 14.5043 0.204509 1.079406 -1.766697
2008-02-27 08:56:35 51°9.739 2°37.677 14.5006 0.204509 1.079406 -1.766697
2008-02-27 08:56:40 51°9.738 2°37.669 14.5082 0.204509 1.079529 -1.766697
2008-02-27 08:56:45 51°9.737 2°37.661 14.5165 0.204509 1.079529 -1.766697
2008-02-27 08:56:50 51°9.736 2°37.653 14.513 0.204509 1.080303 -1.766697
2008-02-27 08:56:55 51°9.734 2°37.646 14.5152 0.204509 1.081518 -1.766697
2008-02-27 08:57:00 51°9.733 2°37.637 14.5146 0.204509 1.082295 -1.766697
2008-02-27 08:57:05 51°9.732 2°37.629 14.5168 0.204509 1.082436 -1.766697
2008-02-27 08:57:10 51°9.73 2°37.622 14.5121 0.204509 1.082206 -1.766697
2008-02-27 08:57:15 51°9.729 2°37.614 14.5208 0.204509 1.082206 -1.766697
2008-02-27 08:57:20 51°9.728 2°37.605 14.5283 0.204509 1.081853 -1.766697
2008-02-27 08:57:25 51°9.726 2°37.597 14.518 0.204509 1.081836 -1.766697
2008-02-27 08:57:30 51°9.725 2°37.589 14.5175 0.204509 1.082012 -1.766697
2008-02-27 08:57:35 51°9.723 2°37.581 14.5104 0.204509 1.082136 -1.766697
2008-02-27 08:57:40 51°9.722 2°37.573 14.5185 0.204509 1.081783 -1.766697
2008-02-27 08:57:45 51°9.72 2°37.565 14.5089 0.204509 1.081783 -1.766697
2008-02-27 08:57:50 51°9.719 2°37.557 14.5233 0.204509 1.081342 -1.766697
2008-02-27 08:57:55 51°9.718 2°37.55 14.5338 0.204406 1.080294 -1.766697
2008-02-27 08:58:00 51°9.716 2°37.542 14.534 0.204509 1.080584 -1.766697
2008-02-27 08:58:05 51°9.715 2°37.534 14.5167 0.204406 1.080188 -1.766697
2008-02-27 08:58:10 51°9.714 2°37.526 14.5186 0.204509 1.080848 -1.766697
2008-02-27 08:58:15 51°9.712 2°37.518 14.527 0.204509 1.080848 -1.766697
2008-02-27 08:58:20 51°9.711 2°37.51 14.5343 0.204406 1.0804 -1.801521
2008-02-27 08:58:25 51°9.71 2°37.503 14.542 0.204509 1.081589 -1.766697
2008-02-27 08:58:30 51°9.708 2°37.495 14.5404 0.204509 1.081694 -1.766697
2008-02-27 08:58:35 51°9.707 2°37.487 14.528 0.204406 1.080787 -1.766697
2008-02-27 08:58:40 51°9.706 2°37.479 14.5204 0.204406 1.080928 -1.766697
2008-02-27 08:58:45 51°9.704 2°37.471 14.5296 0.204406 1.080928 -1.766697
2008-02-27 08:58:50 51°9.703 2°37.464 14.5414 0.204406 1.081493 -1.766697
2008-02-27 08:58:55 51°9.701 2°37.456 14.5305 0.204406 1.081299 -1.766697
2008-02-27 08:59:00 51°9.7 2°37.448 14.5241 0.204406 1.08084 -1.766697
2008-02-27 08:59:05 51°9.698 2°37.44 14.5255 0.204406 1.081034 -1.766697
2008-02-27 08:59:10 51°9.697 2°37.432 14.5388 0.204406 1.080805 -1.801521
2008-02-27 08:59:15 51°9.695 2°37.424 14.5479 0.204406 1.080805 -1.801521
2008-02-27 08:59:20 51°9.694 2°37.416 14.5301 0.204406 1.08077 -1.766697
2008-02-27 08:59:25 51°9.693 2°37.408 14.5446 0.204509 1.081218 -1.766697
2008-02-27 08:59:30 51°9.691 2°37.4 14.5345 0.204406 1.0801 -1.766697
2008-02-27 08:59:35 51°9.69 2°37.392 14.5349 0.204406 1.079837 -1.766697
2008-02-27 08:59:40 51°9.689 2°37.384 14.5454 0.204406 1.080206 -1.766697
2008-02-27 08:59:45 51°9.687 2°37.377 14.5389 0.204406 1.080206 -1.766697
2008-02-27 08:59:50 51°9.686 2°37.369 14.553 0.204406 1.081034 -1.766697
2008-02-27 08:59:55 51°9.685 2°37.361 14.5376 0.204406 1.081475 -1.766697
2008-02-27 09:00:00 51°9.683 2°37.353 14.5432 0.204406 1.081722 -1.766697
2008-02-27 09:00:05 51°9.681 2°37.345 14.553 0.204406 1.081193 -1.766697
2008-02-27 09:00:10 51°9.68 2°37.337 14.5461 0.204406 1.08114 -1.766697
2008-02-27 09:00:15 51°9.679 2°37.329 14.5554 0.204406 1.08114 -1.766697
2008-02-27 09:00:20 51°9.677 2°37.321 14.5603 0.204406 1.081581 -1.766697
2008-02-27 09:00:25 51°9.676 2°37.313 14.5597 0.204406 1.081405 -1.801521
2008-02-27 09:00:30 51°9.675 2°37.305 14.5621 0.204406 1.081563 -1.766697
2008-02-27 09:00:35 51°9.673 2°37.297 14.5629 0.204406 1.081528 -1.766697